GFSMW_925_thetae_003.txt.gz
Theta_e
317 320 322 325 326 326 325 324 323 323 322 319 311 311 311 309 307 307 308 307 305 304 303 301 300 299 299 300 299 298 299 300 300 300 299 299 303 303 302 301 301 300 299
319 319 322 327 328 327 327 325 324 321 315 312 313 313 311 309 307 306 305 304 302 301 300 302 303 303 302 300 299 298 299 300 299 298 298 300 299 299 301 298 298 298 298
320 319 322 324 323 324 324 323 319 312 312 311 309 309 308 308 306 304 303 302 302 303 303 302 302 302 302 301 299 299 299 299 299 298 297 298 298 297 296 296 296 296 294
315 314 314 315 316 313 313 312 310 309 308 308 307 307 307 306 304 302 303 304 303 302 302 301 301 302 300 300 299 298 297 296 295 295 295 294 295 295 294 293 293 293 291
313 311 309 309 308 308 308 308 308 307 306 306 306 305 303 303 303 303 303 303 303 301 301 301 301 301 299 298 297 296 294 293 292 291 291 291 290 291 291 291 290 290 289
313 312 311 310 308 308 307 308 308 305 304 303 301 301 301 301 301 301 301 302 301 301 301 300 300 300 299 297 294 291 291 290 290 289 289 289 289 289 290 290 289 289 288
313 313 312 311 308 307 306 304 303 301 301 301 301 300 298 297 297 296 297 296 298 298 299 299 300 299 295 294 293 292 290 290 289 289 288 289 289 289 289 289 289 289 288
314 314 310 307 305 304 303 302 302 300 299 296 294 293 291 291 290 289 289 290 293 293 295 298 298 295 294 293 293 293 291 289 289 289 290 289 289 290 289 288 288 289 288
313 311 308 306 304 303 302 303 300 295 294 294 294 293 292 292 291 291 291 290 291 295 298 298 296 295 294 295 293 292 291 290 290 290 290 289 289 288 287 287 287 287 289
310 309 306 305 305 303 300 296 295 296 295 294 294 294 293 293 292 292 291 291 293 296 298 296 295 295 294 293 291 291 291 289 290 290 290 288 287 286 286 286 285 285 285
310 306 304 304 304 300 296 296 296 295 295 294 294 294 293 293 292 292 291 291 293 295 296 295 294 293 292 291 290 289 289 288 289 288 287 287 286 286 285 284 284 284 284
306 304 301 300 298 296 295 297 296 295 294 293 293 293 293 292 292 291 291 291 293 293 293 293 293 293 291 289 289 289 288 288 288 287 286 286 285 284 284 284 283 283 283
304 302 298 297 296 296 296 296 296 295 293 293 293 293 292 292 291 291 291 291 292 292 292 292 292 290 289 288 288 288 288 287 287 286 285 285 284 284 284 283 283 282 282
304 302 298 296 296 296 297 298 296 293 293 292 293 292 292 292 291 291 291 291 291 292 292 292 291 290 288 288 288 287 287 286 285 285 284 284 283 283 283 283 283 282 282
303 301 298 296 296 295 296 296 294 293 292 292 292 292 292 292 291 291 291 291 291 292 291 290 287 288 287 287 287 286 286 286 285 284 283 282 281 281 281 281 281 280 280
304 301 298 296 295 295 295 294 293 292 292 292 292 292 292 292 291 291 290 291 292 292 291 290 289 288 287 286 285 284 284 282 281 281 280 279 279 279 279 278 278 279 279
304 301 299 296 295 295 295 293 292 292 292 291 291 291 292 292 291 291 290 291 292 292 291 290 288 287 286 284 283 282 281 280 280 279 278 278 278 278 278 278 279 280 280
304 301 299 296 294 293 293 293 292 292 291 291 291 292 292 291 291 291 290 291 291 290 290 289 288 286 283 282 281 280 280 279 279 278 278 278 278 278 278 279 279 279 279
303 301 299 297 295 293 292 292 292 292 292 292 292 292 291 291 291 291 290 290 289 288 288 287 285 283 281 281 280 279 279 279 278 278 278 277 277 277 278 278 279 279 279
301 299 298 295 292 291 292 293 293 292 291 291 292 292 292 291 291 291 290 289 288 286 286 285 283 282 281 280 279 279 279 278 278 278 277 277 276 277 277 277 278 278 279
297 296 293 292 292 293 293 293 292 291 291 292 292 291 291 291 291 291 289 288 287 286 285 284 282 282 281 280 279 278 278 278 278 277 277 277 276 276 276 276 277 278 277
293 293 292 293 293 293 293 292 291 291 291 291 290 290 290 290 290 289 288 288 286 285 284 283 282 281 281 280 279 278 278 277 277 277 276 276 276 275 275 275 275 276 276
292 292 293 293 292 291 291 290 291 291 290 289 289 289 289 289 288 288 287 287 285 284 283 283 283 282 281 280 279 278 278 277 276 276 275 275 275 274 274 274 274 274 275
292 292 292 290 290 290 290 290 291 290 289 288 289 289 288 288 288 287 287 286 285 284 284 284 283 283 281 280 279 278 279 277 277 276 275 274 274 274 274 274 274 273 273
298 292 290 290 290 290 290 290 289 288 288 288 288 287 287 288 288 287 287 286 285 286 285 284 283 283 282 281 280 279 279 278 277 276 275 275 275 275 274 274 274 273 272
291 290 289 290 289 289 289 289 287 288 288 288 288 288 288 287 288 288 287 286 286 285 284 284 283 283 283 282 281 279 279 278 277 276 276 275 274 274 274 274 274 273 272

GFSMW_925_thetae_006.txt.gz
Theta_e
327 327 329 328 329 330 329 327 326 325 325 322 321 318 317 314 310 309 308 308 307 307 307 307 307 307 307 307 306 305 304 304 304 302 302 301 300 302 303 303 301 301 302
328 328 329 329 329 328 327 327 326 325 321 320 318 318 317 313 309 308 307 307 306 306 306 307 307 306 306 306 306 304 302 302 302 302 300 301 300 299 301 300 299 299 299
330 331 330 330 330 329 328 327 324 319 317 316 315 313 312 311 311 309 308 307 306 306 305 306 305 305 305 304 304 303 302 301 300 299 299 300 300 297 297 298 296 297 295
331 331 331 331 330 329 326 321 317 315 312 311 312 312 311 311 308 307 307 307 306 306 305 305 304 304 303 302 303 301 300 298 298 297 296 296 296 298 297 295 295 293 293
328 327 325 324 320 317 316 314 312 310 310 310 310 310 309 307 307 306 305 305 304 304 303 303 302 302 301 302 302 300 298 297 296 296 295 295 294 293 293 294 293 292 292
321 319 318 315 314 313 312 311 310 309 308 308 307 307 306 304 302 299 299 297 296 296 297 298 301 302 302 302 300 297 297 295 294 293 292 292 292 292 291 293 292 291 291
318 316 314 313 313 313 312 310 309 307 307 306 304 301 299 298 297 296 295 295 295 295 295 296 298 301 302 299 297 296 296 294 293 292 291 291 291 291 291 291 291 291 290
318 317 315 315 313 312 310 309 308 307 304 301 298 297 297 297 296 296 296 295 295 296 297 299 301 301 299 297 297 297 295 293 292 291 291 291 291 290 290 290 290 291 290
319 318 316 314 312 310 309 309 305 302 299 299 298 298 297 297 297 296 296 295 295 296 297 300 300 299 297 297 296 295 294 293 291 291 291 290 290 289 289 289 289 289 291
319 318 314 312 310 310 307 304 302 301 298 298 298 297 297 297 297 296 295 294 294 295 297 298 299 297 297 296 295 293 292 291 290 290 290 289 289 288 288 288 288 287 287
319 317 313 311 310 308 304 302 301 299 298 298 298 298 297 297 296 295 294 294 294 294 295 297 297 296 295 294 294 292 291 290 290 290 290 289 288 288 288 287 287 287 287
319 316 312 311 309 305 302 301 300 299 298 297 297 297 297 296 296 295 294 294 294 294 294 295 295 295 294 294 292 291 291 291 290 290 289 288 288 287 287 287 287 286 286
316 313 311 309 306 303 301 300 300 299 297 296 297 297 296 296 295 295 294 294 294 294 294 294 294 293 292 291 291 291 291 290 289 289 288 288 287 287 286 286 286 285 284
314 312 309 306 304 302 301 302 299 298 296 296 296 296 296 296 295 294 294 293 293 294 294 294 294 293 291 290 290 290 290 289 289 288 288 287 286 285 284 283 284 283 283
312 310 308 306 304 302 302 301 299 297 296 296 296 296 295 295 295 294 293 293 293 294 294 293 291 291 290 289 289 290 289 289 287 286 285 284 282 281 280 280 281 281 281
311 310 308 306 304 302 302 300 298 297 296 296 296 295 295 295 295 294 293 293 293 293 294 293 292 292 289 288 286 286 286 286 285 284 283 282 281 281 279 280 279 279 280
311 310 309 306 303 301 301 299 297 296 295 295 295 294 294 294 294 293 293 293 293 293 293 293 292 291 290 285 284 283 284 285 284 283 282 282 281 281 281 280 280 280 281
312 311 309 306 301 301 300 298 296 295 295 294 294 294 294 293 293 293 293 293 293 292 291 291 291 291 287 283 282 282 284 283 282 282 281 281 281 281 279 279 280 280 280
312 311 309 305 302 299 299 296 295 295 294 294 294 293 292 293 292 293 293 293 292 291 291 291 290 289 286 283 282 281 283 283 282 281 281 280 279 279 278 278 279 280 280
311 310 307 303 300 298 296 295 295 295 295 294 292 292 292 292 292 292 293 293 292 291 290 289 288 285 285 282 281 280 282 282 282 281 280 279 278 277 277 277 278 279 279
310 307 302 300 298 297 295 295 295 295 293 292 292 292 292 292 292 292 293 292 292 290 289 287 286 285 284 283 281 280 281 281 281 281 280 279 278 277 277 276 277 277 276
305 302 299 297 295 295 295 296 295 293 292 292 292 292 292 292 292 292 292 292 291 290 289 287 286 286 284 282 281 280 279 278 279 280 280 279 277 276 276 276 275 275 276
300 296 295 295 295 294 293 293 293 292 292 292 292 291 291 291 291 291 292 291 290 289 289 288 287 288 287 284 282 280 279 279 279 279 278 276 276 276 277 276 275 275 277
296 295 294 293 292 292 291 292 292 292 291 291 291 291 290 289 290 291 291 290 290 289 288 288 288 287 286 285 284 283 282 281 280 280 279 278 277 277 277 278 277 277 276
295 295 294 294 293 292 291 291 291 290 290 291 290 290 290 289 289 289 290 290 290 289 289 288 287 286 286 285 284 283 282 282 281 278 279 280 280 279 279 278 278 277 276
293 292 292 291 291 291 291 291 290 289 290 290 290 291 290 290 289 289 289 290 289 287 286 285 284 285 284 283 283 282 280 280 279 279 280 281 280 280 279 279 278 278 276

GFSMW_925_thetae_009.txt.gz
Theta_e
330 330 327 327 329 331 330 330 328 327 328 325 322 320 319 317 314 313 312 311 311 310 310 310 310 310 310 309 309 309 308 307 304 303 303 302 302 302 301 302 303 303 301
330 329 330 329 330 331 331 330 329 328 324 322 320 320 319 316 313 312 311 310 310 310 309 309 309 309 308 307 307 307 306 303 302 302 302 302 300 299 299 298 298 299 299
331 332 331 331 331 331 330 329 327 324 321 320 318 316 315 314 314 313 311 310 310 309 308 307 307 307 306 304 303 303 304 302 301 300 300 300 300 298 297 297 297 297 297
332 333 332 331 330 330 329 326 323 320 318 315 315 316 315 314 312 311 310 309 307 306 304 303 303 303 304 303 302 303 302 301 300 299 299 298 297 298 298 295 295 295 295
332 333 332 332 330 328 326 322 319 315 314 314 314 313 312 311 309 306 303 301 300 299 298 298 298 299 302 303 303 303 302 300 299 298 297 296 295 294 295 295 294 294 293
332 330 328 328 325 323 320 317 314 313 313 313 312 311 307 304 303 301 299 298 298 298 298 298 298 299 300 302 302 302 300 299 298 296 295 294 294 293 293 294 293 294 293
327 325 324 320 319 317 316 315 313 312 312 310 307 304 302 301 300 299 298 298 298 297 297 298 299 300 300 301 301 299 299 298 296 295 294 293 293 293 292 292 292 293 292
323 322 320 317 317 316 315 313 313 312 309 304 303 302 300 300 300 299 298 297 297 297 297 298 300 300 300 299 299 299 298 297 295 294 293 293 292 292 292 291 291 293 292
321 319 318 317 317 316 315 313 312 310 305 303 303 301 300 300 300 299 298 296 296 296 296 298 299 300 299 299 299 297 296 295 294 293 292 292 291 291 290 290 290 291 293
320 320 318 318 317 316 314 313 310 306 304 303 301 301 300 300 299 298 297 296 296 296 296 296 297 298 298 298 296 295 295 294 293 292 292 292 291 291 290 290 290 289 290
321 320 319 318 316 314 314 310 307 305 304 302 301 300 300 300 299 298 297 296 295 295 295 295 296 296 296 295 295 295 295 293 293 292 292 291 291 290 289 289 289 289 289
321 321 319 317 315 314 311 308 306 305 303 302 300 300 300 299 298 297 296 296 295 295 295 295 295 295 295 294 294 293 293 292 292 292 291 290 290 289 288 288 288 288 288
322 321 319 317 315 313 309 307 305 304 302 300 300 300 300 299 298 297 296 295 295 295 295 295 295 294 295 294 293 292 292 292 292 291 291 290 289 288 287 287 287 286 286
322 321 320 316 315 312 308 306 305 303 301 300 300 300 299 299 298 297 296 295 294 294 295 295 294 294 293 292 292 292 291 291 291 290 289 288 287 286 285 284 284 284 284
322 321 318 316 314 311 307 306 305 302 300 300 299 299 299 298 297 297 296 295 294 294 294 294 294 294 293 292 290 291 291 290 289 288 287 286 285 283 281 281 282 282 282
320 319 317 315 312 310 307 306 304 301 300 299 299 299 298 297 296 296 295 295 294 294 294 294 294 294 293 291 290 286 287 288 288 287 286 285 284 283 282 282 281 280 281
318 317 316 313 311 309 307 306 303 301 299 299 298 298 297 296 296 295 294 294 294 294 294 293 293 294 293 291 287 285 285 287 287 286 285 284 283 283 283 282 281 281 281
317 316 314 312 311 309 306 305 301 300 299 298 297 297 296 295 295 294 294 294 294 294 293 293 292 292 291 289 286 283 285 287 286 285 284 283 283 282 280 279 280 280 281
316 315 314 313 311 308 305 303 301 300 298 297 296 296 294 294 294 294 294 294 294 294 293 293 292 291 289 288 285 283 285 286 285 284 283 282 281 281 278 278 279 280 280
315 315 314 313 311 307 303 302 300 299 298 297 296 294 294 294 293 293 293 293 294 293 293 292 291 290 289 287 285 283 284 285 284 284 283 282 280 279 278 278 278 279 280
315 314 313 312 310 306 302 300 301 298 297 295 294 294 293 293 293 293 293 293 293 293 293 291 290 289 287 286 285 282 282 284 283 282 283 282 281 279 278 277 277 278 276
314 313 311 308 304 301 299 299 297 296 294 294 294 293 293 293 293 293 293 293 293 293 292 291 290 289 287 286 284 283 281 280 281 282 282 282 280 278 277 278 278 277 277
310 307 302 298 298 298 297 297 294 294 293 293 293 293 293 292 292 292 292 293 293 292 292 291 290 289 289 288 285 284 282 281 280 281 281 280 279 279 279 280 278 278 279
303 300 298 296 296 297 296 294 294 293 293 292 292 292 292 291 291 291 292 292 292 292 291 290 289 289 288 288 287 284 283 282 281 282 282 280 280 281 281 280 281 280 279
296 297 298 297 296 295 293 292 292 292 292 291 291 292 291 292 292 291 290 292 292 291 291 290 290 289 288 287 286 286 285 284 283 281 281 282 282 282 282 281 281 280 280
295 295 295 295 294 293 292 292 292 291 291 291 291 292 292 292 292 291 290 290 290 290 289 288 288 288 286 284 284 283 283 282 281 281 282 282 283 282 282 282 281 281 280

GFSMW_925_thetae_012.txt.gz
Theta_e
329 327 325 327 331 330 329 330 329 327 325 326 321 319 317 316 314 313 312 311 311 310 310 310 310 310 309 308 307 307 307 307 305 303 302 302 301 300 300 298 298 298 299
330 330 328 327 330 331 331 330 328 328 328 324 322 321 318 315 313 313 311 311 311 310 309 309 308 307 307 307 306 304 304 305 304 301 301 299 300 300 298 298 297 297 296
332 331 329 330 331 332 332 330 329 328 323 321 320 317 315 314 314 313 312 311 310 308 307 304 303 303 304 305 304 303 304 303 302 301 300 299 298 298 297 296 296 295 295
331 331 332 331 333 332 331 330 328 322 320 318 317 315 315 313 312 311 308 306 302 301 299 298 298 298 299 301 303 303 303 303 301 300 299 298 297 295 295 295 294 294 293
331 332 332 332 331 330 330 327 322 318 316 316 316 314 312 311 308 303 302 300 299 298 298 298 299 299 299 299 301 303 303 301 300 298 297 296 295 294 294 292 293 293 293
332 332 332 330 330 330 326 321 318 315 315 315 313 311 307 304 303 301 300 299 299 298 298 298 299 300 300 301 303 302 300 299 299 297 296 295 294 294 293 292 292 292 292
332 332 332 331 329 325 321 317 315 314 314 312 307 304 303 302 301 300 299 299 298 298 298 297 299 300 301 301 301 300 299 299 298 297 295 294 294 293 293 293 292 292 291
332 331 329 327 324 321 318 316 314 314 312 306 304 303 302 301 301 300 299 298 298 297 296 297 298 299 301 299 299 299 298 298 297 296 295 294 293 293 292 291 291 290 290
328 327 325 321 320 318 317 315 314 313 308 304 304 303 301 301 300 300 299 297 297 297 296 296 297 298 300 298 299 298 298 297 295 294 293 292 292 292 292 291 290 291 289
325 323 321 319 318 318 317 315 314 312 306 305 304 302 302 301 300 299 298 297 297 296 296 296 296 296 297 299 298 297 296 295 295 294 293 293 292 291 291 290 290 289 289
324 321 319 319 318 318 316 315 314 309 306 305 303 302 301 301 300 299 298 297 296 296 296 296 296 296 296 295 295 295 294 295 294 293 293 292 292 291 290 290 289 289 289
323 321 320 319 319 318 316 315 313 308 306 305 303 301 301 301 300 299 298 297 296 296 295 295 295 295 295 295 295 294 293 293 293 293 292 291 290 290 289 288 288 287 286
323 322 321 320 319 317 316 314 311 308 306 304 302 302 301 301 300 299 298 297 296 295 295 295 295 295 294 295 294 294 292 292 292 292 291 290 289 287 287 286 284 283 284
323 322 321 321 318 317 315 313 310 307 306 303 302 301 301 300 300 299 298 297 296 295 295 295 295 295 294 293 293 292 292 291 291 290 289 288 287 286 285 283 282 282 282
323 322 322 321 318 316 315 312 309 307 305 302 301 301 300 300 299 298 297 297 295 295 295 294 295 295 295 294 292 290 290 289 289 288 288 287 286 285 284 283 282 282 281
318 321 322 321 318 317 315 311 308 306 303 301 301 300 300 299 298 297 297 296 296 295 294 294 294 294 295 293 292 290 288 287 288 288 287 286 285 284 283 283 282 281 281
318 319 320 320 318 316 314 311 308 306 302 301 300 299 299 297 298 296 296 296 295 295 295 294 294 293 294 293 292 290 287 286 287 287 286 285 284 284 283 282 281 279 280
318 318 318 317 316 315 313 310 308 305 302 300 299 298 298 297 296 296 295 295 295 295 295 294 293 293 292 292 291 288 286 286 287 286 285 284 284 282 281 280 279 279 280
316 316 315 316 315 313 312 308 307 303 301 299 298 297 297 295 294 294 294 294 294 294 294 294 293 292 291 290 289 286 285 286 286 285 284 284 283 281 281 279 278 278 279
315 315 315 315 314 313 311 306 304 302 299 299 298 295 296 295 294 293 293 293 294 294 294 294 292 291 290 289 287 286 285 284 285 284 284 283 282 281 280 278 278 278 278
315 315 315 313 312 311 307 303 300 300 298 296 296 297 295 294 293 293 293 293 293 293 293 293 292 290 289 288 287 286 285 283 284 283 283 283 282 281 280 278 278 278 278
313 313 304 300 299 301 302 300 299 297 295 296 295 294 293 293 293 293 292 293 293 293 294 292 291 290 290 288 287 286 285 282 281 281 282 282 282 280 280 279 279 279 278
306 300 299 297 297 297 298 295 295 295 294 294 294 293 293 293 292 292 291 292 293 293 293 292 291 291 289 289 288 287 285 283 282 282 281 281 281 281 281 281 280 280 280
301 299 298 298 298 297 296 295 295 294 293 292 292 292 292 292 291 291 291 291 291 293 292 291 291 291 290 289 289 287 285 283 283 283 283 282 281 282 282 282 282 281 281
299 298 296 296 295 294 294 293 293 292 292 292 292 292 292 291 292 292 292 291 290 290 290 291 291 291 290 288 287 287 286 285 284 283 282 281 282 283 283 282 282 281 281
296 296 295 295 295 294 294 293 293 292 292 291 291 291 292 292 291 291 292 291 291 290 290 290 290 289 290 288 286 285 284 284 283 282 281 282 282 283 283 282 282 282 281

GFSMW_925_thetae_015.txt.gz
Theta_e
322 324 328 327 328 329 331 330 328 323 325 323 320 318 316 314 313 313 312 311 310 310 310 309 309 308 308 307 306 305 303 302 304 303 300 300 300 299 298 297 297 296 295
324 323 326 328 328 329 330 330 329 327 326 322 319 317 315 314 313 312 311 310 310 309 308 306 305 304 304 304 305 304 303 303 303 301 299 297 298 297 297 296 296 294 294
325 325 325 329 328 329 329 329 328 326 325 326 320 318 314 313 312 311 311 309 306 305 302 299 298 298 298 300 301 303 303 303 302 300 299 296 295 295 296 295 294 293 293
327 326 326 329 329 329 329 329 328 328 324 320 318 315 313 313 312 309 304 303 302 301 299 298 298 298 298 298 298 301 303 302 300 299 297 296 295 292 291 293 293 293 292
328 326 327 331 331 331 331 330 327 320 319 317 315 315 313 309 304 304 302 301 299 298 298 298 298 297 299 301 302 302 302 300 299 298 297 297 295 293 292 290 291 292 292
325 327 330 332 331 331 330 325 320 316 316 315 313 313 310 306 305 301 300 299 299 298 298 298 297 299 300 302 301 300 299 299 298 297 296 295 293 293 292 290 291 291 291
327 329 328 328 330 329 321 318 316 315 315 314 311 308 306 305 303 301 300 298 298 298 297 297 297 298 300 300 299 299 298 298 297 297 296 295 294 293 292 291 290 289 290
326 328 329 329 325 321 317 315 315 314 314 312 309 306 303 303 302 300 299 298 298 297 297 296 296 297 300 299 298 298 297 297 297 296 296 294 293 292 292 291 290 287 288
327 330 328 324 320 318 316 315 314 313 312 309 306 303 302 301 300 300 298 297 297 297 296 296 296 296 296 299 298 298 297 297 296 295 295 294 292 291 291 291 290 289 287
324 323 322 320 319 319 317 315 314 313 308 304 303 302 301 301 300 299 298 297 297 296 296 296 295 295 295 296 297 297 296 294 295 294 293 293 292 292 291 290 289 289 288
321 319 318 318 318 318 317 316 313 312 306 304 304 303 301 300 300 299 298 297 297 296 296 295 295 295 295 295 295 294 294 293 293 293 292 292 291 290 289 288 287 287 285
320 317 316 316 316 317 317 315 314 311 306 304 304 302 301 301 300 299 298 297 296 296 295 295 295 295 295 295 294 294 294 293 292 292 291 291 290 289 287 287 286 284 283
318 316 314 316 316 316 315 315 314 309 305 305 304 302 301 301 300 299 298 297 297 296 295 294 295 295 295 294 293 293 292 292 292 291 291 289 289 287 286 285 284 283 282
320 316 316 315 316 316 315 314 314 307 306 305 303 302 302 301 301 299 298 297 297 296 295 294 294 295 295 294 293 293 291 290 290 289 288 288 287 286 285 284 283 282 282
317 317 315 314 316 315 314 314 313 308 306 304 303 302 301 301 300 298 298 297 297 296 295 294 294 294 295 294 294 293 292 289 288 288 288 287 286 285 284 283 283 282 282
314 314 318 316 315 314 314 313 311 308 306 304 302 301 301 300 298 297 297 296 296 296 296 295 294 294 294 294 294 293 291 289 287 287 287 286 285 284 283 283 282 281 280
314 314 315 316 315 315 315 313 310 307 305 303 301 299 299 298 297 298 296 295 296 296 295 295 294 294 293 293 293 292 291 288 286 287 287 286 284 284 283 282 281 281 278
313 313 314 316 317 317 315 314 309 306 303 301 298 297 298 298 297 295 296 296 295 294 294 294 295 294 293 293 292 291 290 287 286 286 286 285 284 283 282 282 280 279 277
310 312 313 315 316 315 315 311 306 304 300 298 298 298 297 296 295 295 294 294 293 293 294 294 294 294 293 292 291 290 287 285 286 285 285 284 284 282 282 281 280 278 277
311 307 305 308 311 312 311 306 301 299 298 296 296 296 296 296 294 294 293 293 293 293 293 293 293 292 291 290 289 288 286 285 285 285 284 283 283 281 281 281 279 278 279
301 300 299 299 301 302 300 297 297 296 296 296 296 296 296 294 294 293 293 293 292 292 292 293 292 291 291 290 289 288 286 286 285 284 283 282 282 282 281 280 279 279 279
298 297 297 296 296 297 297 296 296 295 295 296 296 295 294 294 293 293 292 292 291 291 292 292 291 291 290 290 289 288 287 286 285 283 282 281 282 282 281 281 280 280 280
297 297 297 296 296 296 296 295 295 296 297 297 295 294 294 293 292 292 292 291 291 291 291 292 291 291 291 290 289 289 288 287 285 284 282 282 282 282 281 281 281 281 281
298 297 296 295 295 296 296 297 296 297 296 293 293 292 292 292 292 291 291 291 291 291 290 290 291 291 291 290 290 289 288 287 285 284 283 282 282 281 281 282 282 282 281
296 296 295 295 294 294 294 294 293 293 292 292 292 292 291 291 291 291 292 292 291 291 290 290 290 290 290 291 290 288 288 287 286 285 283 283 282 281 282 282 282 281 282
296 295 295 295 295 294 293 293 293 292 292 292 291 291 291 292 292 291 291 292 292 291 291 290 289 290 290 289 290 288 286 285 286 284 283 283 281 281 281 282 282 281 282

GFSMW_925_thetae_018.txt.gz
Theta_e
325 328 327 327 327 326 327 330 329 325 323 324 318 314 314 313 313 313 312 310 310 310 310 310 309 308 306 305 304 304 303 302 303 302 301 300 299 298 297 296 294 294 293
322 327 327 326 326 325 328 330 328 324 324 322 317 315 314 313 313 312 311 310 310 309 309 307 306 304 303 303 303 303 303 303 302 300 298 296 298 297 296 295 294 293 293
322 325 326 326 326 328 330 329 326 323 324 322 317 315 313 312 311 311 310 310 310 308 307 303 300 298 298 297 298 301 303 303 299 299 299 295 294 293 295 293 293 293 293
322 322 326 325 326 329 330 330 328 324 325 322 318 316 313 312 311 311 310 307 305 303 300 299 298 298 297 299 300 300 301 302 300 298 297 296 295 291 290 293 293 292 292
322 321 326 326 327 329 329 329 329 328 324 324 319 316 313 312 311 307 302 301 299 298 298 298 297 297 298 301 301 301 300 299 298 297 297 296 294 292 290 289 291 291 291
323 323 327 327 326 328 329 328 328 327 326 324 321 317 314 312 306 301 301 299 298 298 298 297 296 298 299 301 300 300 298 297 297 297 296 294 293 293 291 288 289 289 290
324 325 327 328 328 328 329 327 325 321 319 318 317 315 312 310 305 302 300 299 298 297 297 296 296 297 299 300 299 298 298 297 297 297 296 295 294 293 292 291 289 288 290
326 327 328 328 328 326 325 322 319 317 315 314 314 312 307 305 303 301 299 298 297 297 296 296 296 296 298 299 298 298 297 296 297 296 295 295 293 292 291 290 290 287 287
326 327 326 327 325 322 319 318 315 314 313 311 309 306 304 303 302 300 298 297 297 296 296 295 295 295 295 296 296 298 297 297 297 295 295 294 293 292 292 291 289 288 285
325 325 325 323 321 317 316 316 315 313 311 309 306 304 302 302 301 299 298 297 296 296 295 295 295 295 295 295 295 295 294 294 293 294 294 293 293 292 291 290 289 288 286
326 325 322 321 320 315 314 314 314 313 311 311 307 303 302 301 300 299 298 298 297 296 295 295 295 295 295 295 295 294 294 293 293 293 292 292 291 291 290 288 287 286 284
324 323 321 319 316 315 314 314 314 314 313 311 305 303 302 301 300 299 299 298 297 297 296 295 294 294 295 295 294 294 293 293 292 292 291 291 291 289 288 287 286 284 283
319 318 318 318 317 316 315 312 312 311 309 304 303 303 302 301 300 299 299 297 298 297 296 296 295 294 295 295 294 294 293 292 291 291 291 289 289 288 286 285 284 283 282
319 315 316 317 317 317 315 313 309 307 306 304 303 303 302 301 300 300 298 299 297 296 296 296 295 294 294 295 294 294 292 291 290 290 289 288 287 286 285 284 283 282 282
318 317 314 311 314 315 314 313 308 308 307 304 304 303 302 301 301 299 297 297 296 296 296 295 295 295 294 294 294 294 294 292 289 288 287 287 286 286 285 283 283 282 281
312 315 315 312 314 314 314 312 310 309 306 304 304 303 302 301 299 297 296 296 295 295 295 295 295 295 294 294 294 294 293 292 289 287 287 287 286 285 284 283 282 281 280
311 313 316 314 314 314 313 313 312 308 305 303 302 302 301 298 297 297 296 296 295 295 295 295 295 295 295 294 294 294 292 290 289 287 287 286 285 284 283 283 282 281 280
309 308 309 315 315 315 314 314 312 306 303 301 300 298 297 297 296 297 296 297 295 294 293 293 293 294 294 294 293 293 292 291 289 286 286 286 285 284 283 282 282 281 281
306 303 304 305 311 314 312 310 305 303 301 298 298 297 297 296 296 298 298 294 294 293 293 293 293 293 293 293 292 292 290 289 287 286 286 285 284 283 282 282 281 281 280
299 300 301 302 304 304 307 301 298 297 296 296 296 296 295 296 297 296 294 294 293 293 292 292 292 292 292 292 292 291 289 288 286 285 285 284 283 283 282 281 281 280 279
298 297 297 297 296 297 298 297 296 296 295 296 296 296 297 298 297 295 293 293 292 292 291 291 292 292 292 291 290 290 288 288 286 285 284 283 282 282 282 282 281 280 280
297 297 296 296 296 296 296 295 295 296 296 297 298 298 298 296 294 293 292 292 292 291 291 291 292 292 291 290 290 289 288 287 286 286 285 283 282 281 282 282 281 281 281
297 297 296 296 296 296 297 296 296 297 298 299 298 296 294 293 293 292 292 291 291 291 291 290 290 291 291 290 290 289 289 288 287 287 286 284 282 282 282 281 281 281 281
296 295 295 294 294 295 295 295 295 295 294 293 293 293 292 291 291 291 291 291 291 291 291 290 289 290 291 290 290 289 289 288 287 286 286 284 283 282 282 281 281 282 282
295 295 294 294 294 294 293 293 293 292 292 292 291 291 291 290 290 291 291 291 291 291 291 291 290 290 289 290 290 290 290 289 288 286 285 284 282 282 283 282 281 282 282
295 295 295 294 294 293 293 292 292 292 292 292 291 291 291 290 290 291 291 290 290 291 291 291 290 290 290 289 289 290 289 289 288 286 285 284 283 283 283 282 281 281 282

GFSMW_925_thetae_021.txt.gz
Theta_e
329 330 331 330 331 330 330 328 327 327 324 322 322 322 319 315 314 313 313 312 312 312 311 310 309 307 305 303 303 303 303 302 302 302 301 298 297 296 296 295 294 293 293
326 329 328 327 329 330 327 329 328 326 323 322 322 319 314 313 312 312 310 310 310 310 309 308 306 304 302 300 301 301 302 302 301 301 299 295 297 296 295 294 294 293 293
325 328 327 326 326 326 327 328 328 326 323 322 320 315 313 313 311 310 310 310 309 309 306 303 301 299 298 297 297 298 302 301 299 299 299 294 294 293 295 293 293 293 293
323 327 326 325 324 325 326 327 329 326 324 322 318 315 313 311 310 310 309 308 305 303 301 299 298 297 296 296 298 299 300 301 299 297 297 297 295 291 291 293 292 292 292
320 324 326 325 325 325 326 327 328 326 324 322 319 315 313 312 311 310 307 303 301 299 298 298 297 296 296 298 301 301 300 300 299 297 297 296 295 293 290 289 291 291 291
320 319 325 325 325 325 327 327 327 325 324 323 320 316 315 312 311 309 305 300 299 298 297 297 296 296 298 299 300 299 297 296 296 296 296 295 294 292 291 288 289 289 290
321 319 323 324 325 326 327 327 327 325 324 324 322 318 315 313 311 308 301 298 298 297 297 296 295 295 296 299 299 298 297 296 296 296 296 295 295 293 292 290 289 288 289
320 321 324 325 324 325 326 327 327 325 326 325 323 319 315 313 310 305 300 299 298 297 296 296 295 295 298 299 298 298 298 296 296 296 295 295 295 293 292 290 289 287 287
321 323 324 325 325 326 326 327 326 323 325 320 319 319 314 312 308 303 299 298 297 296 296 295 294 295 295 295 295 297 298 297 297 297 295 294 294 293 291 291 290 288 285
323 324 325 326 326 326 324 323 323 323 324 318 315 312 310 308 305 301 299 298 297 296 296 295 295 295 295 295 295 295 294 294 294 293 294 294 293 293 292 291 289 289 287
324 324 325 325 325 324 322 321 319 318 315 313 313 312 309 304 302 300 299 297 296 296 295 295 294 294 294 294 295 295 294 293 293 293 293 293 292 292 291 290 288 287 285
322 324 324 321 318 317 317 317 315 314 313 311 310 309 305 302 301 300 298 297 297 297 296 295 295 294 294 294 295 295 294 293 293 292 292 291 291 291 290 288 287 285 284
321 321 319 318 317 316 314 314 313 310 308 307 305 304 302 301 300 300 299 298 298 297 296 296 296 295 293 294 295 294 294 293 293 292 291 291 290 289 288 287 285 284 283
320 317 317 317 318 317 313 312 311 309 308 306 306 305 302 301 301 300 299 298 298 297 296 296 296 295 294 294 294 294 294 293 293 291 291 290 289 288 286 286 285 283 282
317 315 315 313 316 316 316 313 311 310 308 307 307 303 301 301 300 299 299 298 297 296 296 295 296 295 295 294 294 294 294 293 292 290 289 288 287 286 286 285 284 283 282
312 314 314 313 313 314 315 315 312 309 307 307 304 302 302 301 300 299 297 296 296 295 295 299 296 295 295 295 295 294 294 293 291 289 288 289 287 286 286 284 283 282 281
309 309 309 313 313 313 313 314 312 310 309 305 303 302 302 301 299 297 295 295 296 298 299 296 295 294 293 293 294 294 294 293 291 289 291 287 286 286 285 284 282 281 280
307 304 303 305 310 313 312 311 309 306 304 302 301 300 299 297 296 296 297 298 298 298 295 294 293 293 293 293 294 294 293 292 290 291 290 287 286 285 284 283 282 281 281
300 299 299 301 305 309 310 309 304 302 300 298 297 296 296 297 297 297 298 298 298 296 294 293 292 292 292 292 292 293 293 291 290 289 289 286 285 285 284 283 282 281 281
297 297 297 298 299 299 301 300 297 296 295 295 295 296 297 297 297 297 298 297 295 294 293 292 292 291 291 292 292 292 291 290 290 288 287 286 285 284 283 282 281 281 281
297 297 297 296 296 297 298 296 295 295 296 296 297 297 297 298 298 298 296 294 293 292 292 292 290 291 291 292 292 291 291 290 289 287 287 286 285 283 282 281 281 281 280
296 296 295 295 295 296 296 295 296 296 297 298 299 298 298 298 296 295 294 293 292 292 291 291 290 290 290 292 291 290 290 290 288 287 287 286 285 283 282 282 281 281 281
295 295 295 295 296 296 296 295 296 297 297 298 298 297 296 295 293 293 292 292 292 290 290 290 291 291 290 290 291 290 289 288 287 287 287 286 285 283 282 282 282 281 281
294 295 295 294 294 295 295 294 294 293 293 292 292 291 291 291 290 290 290 291 291 290 290 290 290 290 291 290 290 290 289 289 288 288 286 286 285 284 283 282 282 282 281
294 295 294 293 293 293 292 292 292 292 292 291 291 291 291 291 291 290 290 290 290 290 291 290 290 290 290 291 290 289 289 289 289 289 288 285 284 283 282 282 282 282 281
294 293 293 292 291 291 291 291 291 291 291 291 291 290 290 290 290 290 290 291 291 291 291 290 290 291 291 291 290 290 290 289 289 286 284 283 283 282 282 282 282 283 282

GFSMW_925_thetae_027.txt.gz
Theta_e
326 326 326 326 325 325 326 326 326 326 328 326 322 323 325 328 327 326 324 322 319 315 312 310 309 309 308 305 303 302 302 301 300 300 299 297 296 295 294 294 294 294 293
329 328 326 326 327 327 327 327 327 327 328 326 325 325 325 326 324 324 322 321 317 313 311 310 309 307 305 301 300 301 302 301 300 302 301 303 299 297 295 294 293 293 293
332 330 328 327 327 328 328 328 327 327 327 327 326 326 325 323 318 317 317 315 313 311 310 309 307 303 299 297 296 298 300 301 299 300 301 302 302 299 296 294 294 293 293
331 331 329 328 327 327 328 328 327 327 328 328 327 325 323 319 315 315 313 312 311 310 309 306 301 299 297 296 297 298 299 300 300 298 298 299 299 300 299 296 295 294 294
329 330 330 329 328 327 327 328 327 326 327 327 325 323 322 319 316 313 311 311 309 308 306 302 299 297 295 297 299 299 299 298 298 299 299 298 296 295 296 296 295 294 293
326 327 328 329 329 327 327 328 327 325 324 325 325 323 321 319 314 311 309 308 306 303 301 299 298 296 296 301 303 300 297 297 297 298 297 296 296 296 295 295 295 294 293
326 326 326 328 328 327 327 327 327 326 324 324 323 322 320 318 314 312 310 308 306 303 300 299 297 295 300 303 298 297 297 297 297 297 297 296 296 295 295 294 294 294 293
324 324 325 327 328 327 326 326 327 326 324 323 324 322 318 317 313 312 309 308 306 303 301 298 296 296 300 297 297 297 298 297 296 296 296 296 296 295 295 294 294 295 293
320 322 323 324 326 326 326 326 326 326 324 324 324 323 320 319 316 313 310 308 306 304 300 297 295 298 301 296 297 298 296 297 297 297 296 296 296 295 294 294 293 293 294
317 319 321 321 324 325 325 325 326 326 325 324 324 323 321 319 316 313 310 306 305 302 298 296 296 300 296 296 295 295 295 296 297 296 294 295 295 294 293 293 292 292 292
323 321 320 320 322 324 324 325 325 326 325 323 324 322 321 319 315 312 309 307 306 301 298 296 299 295 295 294 294 293 294 295 295 294 293 293 293 293 293 293 292 291 290
319 323 322 322 322 323 324 324 324 324 321 323 322 320 319 316 313 311 311 309 309 300 298 297 295 295 294 294 294 296 295 294 294 294 293 293 293 293 293 292 291 290 289
318 322 324 324 323 323 321 321 321 322 322 321 318 314 312 309 308 307 307 306 301 299 297 296 295 294 294 294 295 296 294 294 294 294 294 294 293 293 292 291 291 290 288
319 320 323 322 321 320 320 319 318 318 317 316 313 311 310 308 306 305 303 302 299 298 296 295 295 294 295 295 297 296 294 294 294 294 293 293 293 293 292 291 290 289 287
318 318 320 320 319 318 317 317 316 315 314 312 310 309 308 306 304 301 299 298 298 297 296 295 295 294 298 298 297 294 294 294 294 293 293 293 293 292 292 290 289 287 286
311 312 312 312 312 312 315 315 315 314 312 309 308 306 305 304 302 300 299 298 296 296 295 295 294 296 297 298 297 294 293 293 293 293 293 293 293 292 291 289 288 286 286
307 306 306 307 308 309 310 311 311 310 308 306 305 304 303 302 300 299 298 297 296 294 294 296 297 296 296 298 294 294 292 292 292 293 293 292 291 291 289 290 287 286 285
304 303 302 302 302 303 303 304 305 304 303 302 301 302 301 300 298 297 296 295 295 297 297 296 296 296 297 296 294 294 292 292 292 292 292 291 290 289 288 288 287 286 285
300 299 299 299 299 300 300 300 299 299 299 298 298 298 298 297 297 297 297 297 296 296 296 296 296 297 297 295 292 291 290 291 291 291 291 290 290 289 290 287 286 285 284
299 298 298 298 298 297 298 298 298 297 297 297 297 297 297 297 297 297 297 297 297 297 297 297 297 295 293 292 291 290 290 290 290 291 291 291 289 289 289 287 286 285 285
297 297 297 297 297 297 298 297 297 297 298 298 298 298 298 298 298 297 297 297 296 295 294 292 292 291 291 291 290 290 290 289 290 289 289 289 290 288 288 287 285 285 285
296 297 296 296 296 297 297 297 297 297 297 297 297 296 295 295 295 295 293 292 291 291 291 290 290 290 290 290 290 290 290 290 289 289 289 289 290 289 288 287 285 285 284
296 296 296 295 294 294 295 294 293 293 292 291 290 290 290 290 290 290 290 290 290 290 290 290 290 290 289 289 289 289 289 289 289 289 290 289 289 288 288 288 287 285 283
295 294 293 292 291 291 290 290 290 291 291 290 289 288 288 288 287 287 287 287 287 287 287 287 287 287 287 287 288 287 287 288 287 288 288 289 289 288 287 286 286 284 284
293 292 291 291 290 289 288 289 289 289 287 286 285 285 284 284 284 283 283 283 283 283 283 284 283 283 283 282 281 282 282 283 284 286 287 287 286 287 286 286 285 285 284
291 290 290 288 287 286 285 285 285 285 285 284 283 282 282 281 281 281 281 280 279 279 279 279 279 279 279 278 278 279 280 281 282 283 284 287 287 287 287 285 285 284 284

GFSMW_925_thetae_030.txt.gz
Theta_e
326 326 328 328 328 328 326 326 326 327 329 328 324 322 326 328 329 329 327 324 321 318 318 317 315 313 313 312 310 307 306 305 304 305 305 304 302 301 300 300 299 298 298
328 327 327 326 326 327 328 328 328 328 329 326 323 323 325 327 329 327 326 323 321 319 318 316 314 312 312 310 307 305 304 304 304 307 307 311 306 302 300 299 299 299 298
330 329 328 327 326 326 327 328 328 329 328 326 324 326 327 325 326 324 323 323 320 318 316 315 313 312 310 308 306 305 304 306 305 304 306 309 308 305 302 300 299 298 297
330 330 331 330 329 328 327 328 328 328 329 328 326 325 326 326 325 323 323 321 318 317 314 313 312 310 306 304 303 303 305 305 306 303 303 303 301 302 303 301 299 298 297
331 331 331 331 331 330 329 329 329 329 329 329 327 326 327 327 327 323 321 318 315 313 312 310 308 306 304 303 303 304 304 305 305 304 304 302 300 299 300 302 300 298 297
331 331 330 331 331 331 330 330 330 330 329 329 328 328 327 328 325 321 316 314 309 309 308 307 306 305 303 303 304 302 304 304 303 303 301 299 300 301 299 299 298 298 297
330 331 332 331 331 331 331 331 331 330 329 329 329 329 328 327 323 319 315 311 310 307 307 305 305 302 301 302 302 302 302 301 302 300 300 300 299 298 297 297 297 297 296
329 331 331 331 331 332 332 332 331 331 330 329 328 327 326 324 321 318 313 311 309 307 305 304 303 301 299 301 302 303 301 302 301 301 300 299 298 297 297 297 297 298 296
323 326 328 330 330 331 332 332 332 331 331 330 329 328 325 323 320 317 315 313 309 307 305 305 302 301 300 301 303 301 302 300 301 301 300 299 297 298 297 296 295 295 296
324 323 324 326 327 329 331 331 332 331 331 331 329 328 326 323 319 317 314 311 309 307 305 303 301 301 297 300 302 301 300 300 301 300 299 298 297 296 296 295 295 294 294
325 326 324 324 324 327 329 330 330 330 330 331 330 329 328 322 318 316 314 312 311 308 303 302 300 300 297 302 300 299 299 299 299 299 297 297 296 295 295 295 294 294 294
324 326 327 325 325 326 327 328 328 329 329 330 329 329 325 322 320 319 316 313 311 305 302 301 301 297 301 300 298 297 297 298 298 297 297 296 295 295 295 295 295 294 293
323 326 328 328 327 327 327 327 328 328 328 327 324 324 323 320 318 315 312 310 306 304 302 301 298 299 297 297 296 297 298 299 297 297 297 296 296 296 296 295 295 294 293
322 325 328 329 328 328 327 327 327 326 324 322 322 321 319 318 317 315 311 308 305 302 300 298 297 297 297 296 296 298 297 299 297 296 296 296 296 296 296 296 295 294 293
324 326 327 328 327 326 325 324 323 320 319 319 319 318 317 315 314 312 311 308 305 301 298 297 296 297 296 298 298 298 297 298 296 296 296 296 296 296 295 295 295 294 293
321 320 320 319 318 319 320 319 318 316 316 315 314 313 312 310 308 306 302 300 298 297 297 296 296 296 298 297 296 297 297 296 296 296 296 296 296 295 294 293 293 293 293
315 315 315 315 315 315 315 315 313 313 312 311 310 309 308 306 304 302 299 297 296 296 295 296 297 298 296 296 296 297 296 295 296 295 295 295 294 294 294 293 292 291 290
312 312 311 311 310 310 310 310 309 308 308 307 306 306 305 303 301 300 298 296 296 296 297 297 296 296 297 297 296 297 295 295 294 294 293 293 293 293 294 293 292 290 290
310 309 308 308 307 307 307 306 306 305 304 304 303 303 302 302 301 300 300 299 298 298 298 297 297 297 298 296 296 295 293 293 292 292 292 292 292 292 293 292 292 292 291
307 306 306 305 305 305 305 305 304 303 303 302 302 301 301 301 301 300 300 299 299 299 298 297 297 297 296 295 294 292 291 292 292 292 292 292 292 291 292 291 291 291 291
304 304 304 304 304 304 304 303 302 302 301 301 300 300 300 300 299 299 297 297 296 296 295 295 294 294 293 292 291 290 290 291 291 291 291 292 291 291 290 290 289 290 290
303 303 303 303 302 303 303 302 301 300 300 299 298 297 296 295 295 295 294 293 293 293 293 293 293 293 293 292 291 289 288 288 288 289 291 291 291 291 290 288 288 288 288
303 302 302 301 301 300 300 299 298 297 296 294 293 293 292 292 292 293 293 293 292 292 292 291 290 290 289 288 287 286 284 284 283 285 286 288 288 288 288 288 287 287 287
302 300 299 298 296 296 295 295 294 293 293 292 292 291 290 290 289 289 288 288 287 287 286 286 286 285 285 284 283 281 281 281 282 282 283 283 283 285 288 288 288 287 288
299 298 297 296 294 293 293 292 292 291 291 290 288 288 287 286 286 285 284 283 283 281 282 282 282 282 282 281 278 278 279 279 279 279 281 283 284 285 287 288 288 289 288
297 296 295 293 292 290 290 289 289 289 288 287 286 284 285 284 284 283 283 281 280 278 278 278 278 278 278 276 276 276 277 277 278 279 283 285 285 285 286 286 288 289 288

GFSMW_925_thetae_033.txt.gz
Theta_e
325 327 328 325 325 325 324 324 324 324 326 326 325 321 320 323 327 329 330 329 326 325 324 323 321 320 318 316 315 312 310 308 307 309 310 309 307 306 305 304 303 302 301
326 326 327 327 326 326 326 325 325 326 326 325 324 321 321 322 326 329 329 328 327 324 324 323 321 319 317 316 314 310 309 309 308 311 312 314 310 307 305 304 302 302 301
327 327 326 328 328 327 327 327 327 327 327 326 325 321 321 324 326 328 329 329 327 325 323 322 321 319 317 315 313 310 309 308 309 309 310 313 313 308 306 304 303 302 301
328 328 327 326 327 327 328 328 327 327 327 327 325 322 324 325 327 328 328 328 327 325 323 322 321 318 316 313 312 309 308 308 309 311 308 308 308 307 307 305 303 302 301
328 328 328 327 327 327 327 328 328 328 328 328 327 324 326 326 326 327 328 327 327 324 323 321 319 317 315 311 309 307 307 308 309 308 308 308 306 304 304 305 304 302 300
329 328 327 328 329 328 328 328 328 327 328 328 329 328 328 327 327 329 328 327 324 321 320 318 316 313 310 308 307 306 306 307 307 307 307 306 304 304 304 304 303 302 301
329 328 328 329 329 331 331 330 329 329 328 329 329 329 329 328 328 329 327 324 321 316 314 313 310 309 308 306 305 304 303 305 305 307 306 303 304 303 301 300 300 300 300
329 329 328 328 328 329 332 332 331 330 329 330 330 330 330 330 330 329 326 321 316 314 317 318 309 307 306 305 304 301 303 304 304 305 303 304 303 301 300 300 299 300 299
326 329 329 329 329 329 331 333 333 332 331 330 331 331 330 330 330 329 326 320 317 316 316 310 308 305 304 303 301 302 302 304 304 303 303 303 302 300 300 300 298 298 298
326 325 327 328 329 330 331 334 334 333 332 332 332 332 331 330 329 326 323 317 314 312 310 308 305 304 303 300 301 301 304 303 302 302 302 302 301 300 299 298 297 297 297
326 327 326 326 327 330 331 333 334 335 334 333 333 333 331 330 328 325 320 317 314 312 310 308 306 304 302 300 299 301 302 302 302 301 301 301 301 299 298 297 297 296 296
324 327 328 326 326 327 329 331 333 333 333 333 333 332 330 329 326 322 319 317 315 315 312 309 305 302 301 301 301 302 300 300 300 300 301 301 300 298 297 297 297 296 296
323 327 329 329 328 329 329 330 331 331 331 331 332 332 328 325 323 321 320 318 316 313 311 306 302 301 301 300 302 300 299 300 298 299 301 300 299 298 297 297 297 297 296
322 324 329 330 329 329 329 330 330 330 330 330 328 328 326 323 321 319 316 313 311 309 305 302 301 301 299 300 298 298 299 298 298 299 300 299 298 298 298 297 297 297 297
324 325 328 330 330 330 330 329 328 327 326 325 325 324 322 321 319 317 315 312 308 305 303 300 300 299 299 298 298 299 297 297 298 299 299 298 298 297 297 297 297 297 297
325 327 329 329 328 328 327 325 323 321 321 320 319 318 317 316 314 312 309 307 306 303 300 298 299 298 297 298 297 297 298 297 298 298 298 298 297 297 296 296 296 296 296
323 323 322 321 320 320 319 318 317 317 316 315 314 313 312 310 308 306 304 303 301 300 299 298 297 297 298 297 297 297 297 297 296 296 296 297 297 296 295 295 295 295 295
320 319 318 316 316 315 315 314 313 313 312 311 311 310 308 307 305 304 302 299 298 298 298 298 298 299 299 297 297 297 297 296 295 296 296 295 294 294 294 294 294 295 295
317 316 315 314 313 312 311 311 310 309 309 308 307 307 306 305 304 303 303 302 301 301 301 300 299 298 298 298 297 296 295 295 295 294 294 294 294 293 293 293 293 294 294
313 313 312 311 311 310 310 309 308 307 307 306 306 305 305 304 303 302 301 300 300 300 299 298 298 297 297 297 295 293 293 292 292 292 293 293 293 293 292 292 292 292 294
312 311 311 310 309 309 308 308 307 306 305 304 304 303 302 301 300 300 299 298 298 298 297 297 296 295 294 294 292 291 290 289 287 288 289 290 290 290 290 290 290 291 291
310 310 309 309 308 308 307 306 305 304 303 301 301 300 299 298 298 298 296 295 295 295 295 295 294 294 294 291 289 286 285 284 283 284 285 285 285 284 284 284 287 288 289
309 309 308 307 307 306 305 305 303 302 300 298 297 295 295 295 295 295 294 294 294 293 292 291 290 290 289 288 286 284 281 281 281 282 282 281 281 281 283 284 284 286 288
309 308 306 306 304 303 303 301 300 298 297 296 295 294 293 292 292 291 290 290 289 288 288 287 287 286 286 285 282 280 280 280 280 280 279 279 281 284 285 286 286 286 287
307 305 304 302 301 300 298 297 297 296 294 293 292 291 290 289 288 287 286 286 283 282 283 284 283 283 282 281 277 277 277 278 278 277 279 281 283 282 283 284 285 286 287
305 303 302 300 298 297 296 295 294 293 292 290 290 289 288 287 287 286 285 283 282 280 278 278 278 278 278 276 275 276 276 276 277 278 280 281 280 280 280 280 281 283 284

GFSMW_925_thetae_036.txt.gz
Theta_e
327 326 325 324 321 319 318 318 318 320 319 319 320 325 320 321 321 323 327 328 327 327 325 326 323 321 320 318 317 315 311 310 309 308 309 309 308 307 306 305 304 303 302
327 326 325 326 324 322 322 324 324 324 323 324 326 325 322 321 322 326 327 326 325 326 325 325 323 322 320 318 316 315 311 310 308 310 312 312 309 308 307 305 304 303 302
327 328 327 326 326 325 325 326 326 326 325 326 325 326 322 321 322 328 326 327 328 327 325 324 324 322 320 318 316 314 311 310 309 309 310 310 311 309 307 306 304 303 302
326 327 327 328 326 327 326 325 324 325 325 326 326 326 322 321 324 329 329 327 327 328 326 324 323 321 320 319 316 313 310 309 310 309 310 309 308 307 305 306 304 303 302
328 326 327 328 329 329 328 327 327 327 327 327 328 327 323 322 323 327 328 329 329 328 326 325 323 321 319 317 315 312 310 308 309 309 309 311 310 307 305 303 305 303 303
328 328 327 326 328 328 329 329 328 328 327 328 327 327 325 324 326 328 328 329 327 326 327 324 322 320 318 316 312 310 308 308 309 307 308 308 308 306 305 303 304 304 303
329 328 328 327 327 328 328 330 330 329 329 329 330 328 327 326 327 327 329 329 328 327 325 323 320 319 318 317 313 308 307 307 306 307 309 308 306 303 304 302 301 300 300
329 329 327 329 329 328 329 329 329 329 329 329 330 330 328 329 330 328 329 328 327 324 323 321 319 318 318 314 311 307 306 304 305 306 307 306 304 303 302 301 301 298 300
329 329 328 328 330 330 330 330 330 330 329 329 329 330 331 330 329 321 328 328 324 322 321 318 317 317 313 311 307 306 305 303 305 305 305 305 304 303 301 301 300 300 297
325 327 329 329 329 330 332 333 332 332 331 331 331 331 331 330 327 325 329 327 322 320 318 315 316 311 309 308 305 305 303 303 303 304 303 303 303 302 301 300 299 299 298
327 327 326 326 328 330 330 334 334 333 333 332 333 332 330 329 323 327 330 325 321 319 315 313 311 309 306 304 304 303 302 302 303 302 302 301 301 301 302 300 298 298 297
325 327 328 326 326 327 330 334 335 334 335 335 334 332 331 331 331 330 327 324 321 317 314 311 309 307 305 304 303 301 301 302 302 301 300 300 301 301 301 300 298 297 297
323 327 328 328 327 327 328 330 333 335 335 335 334 332 332 331 329 326 323 321 319 316 314 312 309 306 304 303 301 301 300 301 301 300 299 299 300 301 300 299 298 298 297
322 324 328 329 329 329 330 330 331 331 332 332 332 330 327 325 325 322 321 319 317 316 314 312 308 305 303 302 301 301 302 300 299 298 299 299 300 300 299 299 299 298 298
322 323 329 330 330 330 330 331 331 330 329 329 327 325 323 322 321 319 318 315 312 311 309 306 304 303 301 301 301 300 299 299 298 298 298 299 299 299 298 298 297 297 297
323 324 326 331 331 330 330 329 327 326 326 325 323 322 321 320 317 316 314 312 308 306 303 302 301 300 300 300 299 298 298 298 298 297 298 297 297 297 297 298 297 297 296
325 327 329 330 330 328 326 324 322 321 320 318 317 316 315 312 310 308 307 306 304 302 300 299 299 298 298 298 298 298 298 298 297 296 297 296 296 297 297 297 296 295 295
325 325 323 323 322 321 319 318 318 316 315 314 313 312 310 308 306 304 302 301 300 299 299 298 298 298 298 297 297 297 297 296 297 296 295 296 296 295 294 294 293 293 293
322 321 319 319 317 316 315 314 313 312 312 311 310 308 307 306 304 302 301 301 300 300 300 299 299 299 298 298 297 297 296 295 294 293 293 293 292 292 291 291 290 290 291
318 317 316 315 314 313 312 311 310 309 309 308 308 307 306 305 304 302 302 301 300 300 299 299 299 298 298 298 297 294 292 292 291 290 289 288 287 287 287 286 285 285 286
316 315 314 313 312 311 310 310 309 308 307 307 306 305 303 302 301 301 301 300 299 298 297 297 297 297 294 292 292 290 288 286 284 284 284 284 284 283 282 281 281 282 282
314 313 313 312 311 310 309 308 307 306 305 304 303 302 301 301 300 299 299 299 297 296 296 295 295 294 291 289 287 286 284 283 281 281 281 282 281 280 281 282 284 284 284
313 312 311 310 310 309 308 307 305 304 303 302 301 299 298 298 297 296 295 295 294 293 291 290 290 289 288 287 285 285 282 279 279 280 280 279 278 281 282 283 283 284 285
312 311 310 309 309 308 307 305 304 302 300 298 297 296 294 294 293 291 291 290 289 288 288 288 287 286 286 284 283 280 277 277 278 277 277 278 280 282 281 281 280 280 281
311 310 309 308 307 305 303 302 300 299 297 296 294 292 291 290 289 287 287 287 283 284 285 284 283 283 282 279 277 276 276 277 277 277 278 279 281 280 279 278 278 278 279
310 308 307 305 303 301 300 299 297 296 294 293 291 290 289 289 288 286 284 283 282 281 280 279 278 278 278 277 276 276 276 276 277 277 278 279 279 278 278 277 277 277 277

GFSMW_925_thetae_039.txt.gz
Theta_e
324 321 319 319 316 316 316 316 316 315 315 314 314 314 315 317 318 320 322 324 325 324 326 324 325 323 322 320 318 316 315 311 311 309 308 308 308 307 307 306 305 304 302
324 323 322 318 317 314 314 315 315 314 317 314 314 314 315 320 318 319 320 323 326 325 325 325 325 323 322 320 318 317 313 312 309 308 310 308 309 308 307 306 305 304 303
325 324 323 319 317 316 315 314 314 318 316 316 314 315 321 324 319 321 320 323 325 326 324 326 325 323 322 320 319 316 315 312 310 308 310 308 308 307 308 307 306 304 302
325 324 325 321 319 319 318 318 318 322 320 318 321 322 324 323 320 320 322 325 326 324 323 326 325 324 322 320 320 316 314 311 309 309 309 310 309 305 305 306 306 304 303
325 324 324 325 322 320 320 322 323 322 322 322 323 324 323 324 322 320 321 324 325 325 327 325 324 324 321 321 319 315 312 310 309 310 310 309 310 309 306 304 304 305 303
324 325 325 325 325 324 322 323 325 325 323 323 324 326 325 324 321 321 326 326 327 327 327 326 324 323 322 320 317 316 314 313 312 309 309 309 309 308 306 303 302 302 303
323 325 325 326 325 325 325 324 324 324 324 325 325 326 326 326 322 320 321 328 328 327 326 327 325 324 322 319 318 316 314 312 309 308 308 309 309 308 307 304 301 299 300
324 323 324 325 327 326 326 326 326 326 325 325 326 326 326 327 324 324 326 327 327 326 327 326 326 322 321 320 319 318 314 310 308 308 307 307 309 306 303 302 301 297 298
322 323 324 324 325 327 327 328 328 327 327 327 327 327 327 326 327 324 327 326 327 323 325 326 324 322 319 318 317 316 313 308 307 306 305 307 307 304 303 303 303 300 296
323 324 323 324 325 325 327 327 327 328 328 327 328 328 329 328 327 329 327 325 323 325 325 322 320 318 316 316 316 313 309 306 304 305 306 305 304 303 302 302 301 300 299
319 321 322 323 325 326 326 326 327 327 328 328 327 328 329 330 329 329 327 324 324 326 323 319 318 316 315 315 311 308 306 304 304 304 303 302 302 301 302 301 302 300 298
321 320 320 322 323 326 327 327 328 328 324 321 329 329 329 328 328 328 327 325 325 322 321 320 318 315 313 311 308 306 304 303 303 303 302 301 301 300 300 301 301 300 300
320 321 322 323 324 325 328 329 331 330 326 324 325 330 330 329 324 326 324 324 323 321 318 316 313 311 310 307 305 305 304 302 302 302 301 301 300 299 299 301 300 299 299
318 322 322 323 324 327 329 331 332 332 331 331 331 330 330 329 327 325 323 320 319 318 316 313 311 310 308 306 305 303 301 301 302 301 300 299 299 299 299 299 298 298 298
317 322 323 323 325 329 330 329 330 330 330 330 329 327 326 325 323 321 320 319 316 315 315 314 310 308 306 304 303 301 301 301 300 300 299 298 298 298 298 297 297 297 296
317 319 325 326 327 328 328 327 327 326 328 326 324 323 322 321 319 318 317 313 311 310 309 306 306 305 304 302 301 301 301 300 298 298 298 297 297 296 296 296 297 297 297
318 320 327 327 327 327 326 324 324 323 322 321 320 319 318 317 316 315 312 310 308 305 303 302 302 301 301 301 300 300 299 298 298 298 297 297 296 295 294 294 292 292 292
322 325 323 322 324 324 323 322 320 319 318 315 313 312 311 309 308 307 306 305 303 301 300 299 299 299 298 298 298 298 297 297 297 296 295 294 292 291 289 289 289 289 289
319 318 320 320 320 320 319 317 316 315 313 312 311 309 308 305 303 302 302 301 299 299 298 298 298 298 297 297 297 297 297 296 294 292 292 290 288 286 286 284 283 281 280
317 316 316 316 317 316 316 314 312 312 310 309 308 306 305 303 301 300 299 299 299 299 298 298 298 298 298 297 297 296 293 292 291 289 287 284 282 282 282 281 281 281 283
314 315 314 312 313 313 312 310 309 308 308 307 306 304 304 303 302 301 301 300 300 299 299 298 297 296 296 293 292 290 289 287 285 283 281 280 281 280 280 281 282 283 283
312 312 311 310 311 311 309 307 307 307 306 305 304 303 302 301 301 301 300 299 298 297 296 294 293 291 289 287 287 286 285 283 280 279 279 279 278 279 281 281 281 281 280
311 311 310 309 310 309 308 305 304 304 303 302 301 301 301 300 299 299 298 298 297 295 293 292 288 285 284 285 285 284 282 278 277 277 277 277 279 280 280 279 279 278 278
309 309 309 308 307 307 306 304 304 303 302 301 300 299 298 296 293 293 293 291 290 289 289 287 286 284 283 283 282 280 277 277 277 277 277 278 279 279 278 277 277 277 277
309 309 308 306 305 305 304 303 303 301 298 296 295 293 292 290 289 289 288 288 286 287 287 285 285 284 282 280 278 277 277 277 277 277 278 278 278 277 276 276 276 275 275
307 306 305 302 302 302 301 300 299 297 294 292 291 290 289 287 287 286 283 282 282 281 280 280 279 278 278 277 277 276 277 277 278 278 277 276 276 275 275 275 274 273 273

GFSMW_925_thetae_045.txt.gz
Theta_e
320 320 318 317 317 317 317 317 317 317 318 319 320 319 321 317 316 317 318 321 321 323 324 324 324 323 322 321 320 319 316 313 311 308 307 306 306 306 306 306 306 306 305
320 318 317 316 316 316 316 316 317 318 318 317 317 318 317 316 316 315 315 317 318 319 321 322 322 323 322 321 320 318 315 313 311 309 306 304 306 306 306 306 306 306 305
322 320 317 315 315 316 316 316 316 317 317 317 317 317 317 315 314 315 315 315 315 315 318 321 322 323 323 323 320 318 316 315 312 310 310 305 307 307 308 307 305 304 305
323 320 318 316 314 315 316 316 316 316 316 316 316 316 316 315 314 313 313 313 314 315 319 322 323 324 324 323 322 319 318 317 313 309 309 310 310 307 308 307 307 305 304
324 321 318 318 315 315 316 315 316 316 316 315 315 315 314 314 314 314 314 315 314 315 318 320 325 325 325 324 324 320 318 317 314 311 308 309 309 308 307 307 306 306 307
324 323 320 318 316 315 315 315 314 315 315 314 314 314 314 314 314 315 316 316 316 316 318 319 320 322 324 325 324 323 320 319 315 315 313 312 310 308 307 304 304 305 306
323 323 321 319 317 315 314 314 314 314 314 314 314 314 314 314 314 315 316 317 317 318 318 319 319 321 324 324 323 323 321 320 318 316 314 313 313 310 309 308 305 305 306
323 322 322 321 319 316 313 314 314 314 314 314 315 315 315 314 314 315 317 318 318 319 319 320 319 320 324 324 323 322 321 320 318 315 313 314 312 309 310 309 306 302 300
323 323 322 322 320 318 315 313 314 313 314 314 316 315 315 315 316 316 317 319 319 321 321 322 322 322 323 319 320 323 319 320 319 315 312 313 311 310 309 308 306 301 300
322 323 323 322 322 320 317 315 314 314 314 314 314 318 318 317 316 318 320 321 321 321 320 322 324 324 322 324 324 322 321 318 316 313 312 312 311 309 308 307 305 302 300
321 321 323 322 323 322 320 317 316 315 315 316 317 318 318 319 319 320 320 322 323 322 322 322 324 324 323 323 320 319 318 315 312 311 311 309 308 307 305 304 302 301 301
318 321 320 322 322 322 323 321 318 318 318 319 319 320 320 320 321 321 322 323 323 324 323 323 323 318 317 319 319 318 314 312 311 311 309 307 305 305 303 302 301 301 300
315 316 318 318 321 323 323 323 323 322 321 321 321 322 322 323 323 323 323 323 323 323 324 323 324 320 315 317 317 314 313 313 312 309 307 305 304 302 301 301 300 299 299
315 314 315 318 320 321 322 323 323 323 323 323 323 323 324 324 324 324 324 323 323 323 324 322 319 318 315 316 313 313 312 310 309 307 305 304 303 301 300 299 298 297 296
314 316 316 316 316 319 320 321 322 324 324 324 325 324 324 325 325 325 326 324 323 323 323 322 319 318 316 314 312 312 310 307 305 303 303 302 300 298 297 297 297 295 294
313 314 316 316 318 320 322 322 321 322 323 324 325 325 325 325 326 326 326 325 323 322 321 318 317 313 313 314 311 309 306 304 303 302 301 299 298 297 297 296 294 294 291
313 312 314 318 319 323 325 326 327 325 324 324 324 323 323 323 323 322 321 320 317 316 315 314 313 312 311 309 308 306 305 303 302 302 299 297 296 295 294 292 292 291 288
313 311 311 316 321 325 325 325 325 327 326 324 324 323 322 320 318 317 315 314 314 314 313 311 311 310 307 306 305 303 302 301 300 298 297 296 294 292 292 292 290 287 283
314 313 313 317 322 324 323 323 322 322 321 319 319 318 317 313 312 312 312 312 312 310 308 308 307 305 304 303 302 301 300 297 295 295 294 292 289 290 291 287 282 280 281
310 314 318 320 320 319 321 318 315 316 315 315 314 315 315 314 313 312 309 307 306 304 304 302 301 300 300 300 299 299 297 295 294 290 288 285 289 287 281 280 281 281 281
315 317 318 318 317 317 317 313 311 311 312 313 313 312 313 314 312 308 305 302 300 299 297 296 296 297 296 296 296 296 296 295 290 286 285 283 280 278 279 281 281 280 279
314 316 314 312 313 314 314 309 308 307 308 309 308 308 308 307 306 304 299 298 297 294 291 291 290 290 291 292 293 292 290 288 286 283 280 278 278 279 280 280 279 278 277
311 313 310 307 309 311 311 305 303 305 305 304 302 302 301 301 300 299 297 296 294 290 288 287 285 284 285 285 285 287 286 284 281 279 278 278 279 279 279 278 277 276 275
308 308 307 305 304 307 308 305 303 303 303 300 299 298 298 297 297 297 296 295 292 289 287 285 283 282 281 281 281 281 279 278 278 277 278 278 278 277 276 275 275 274 273
307 306 305 303 301 303 303 303 302 302 298 295 294 294 295 295 293 291 291 292 291 292 290 287 285 282 280 279 278 278 277 278 278 278 277 276 276 275 274 274 273 273 272
304 302 301 300 299 299 299 299 300 300 296 291 289 289 288 286 285 284 282 284 286 287 287 286 285 281 279 278 277 277 278 278 277 277 275 274 273 273 273 272 272 271 270

GFSMW_925_thetae_048.txt.gz
Theta_e
319 319 319 319 319 319 319 320 320 320 319 319 320 322 321 321 317 317 320 318 317 317 318 319 320 317 316 317 318 317 315 314 312 308 306 306 306 306 306 306 306 307 307
320 320 318 318 318 318 318 318 319 319 320 319 319 320 322 321 321 321 322 321 321 322 322 322 322 323 321 321 321 319 317 314 312 309 306 304 306 306 306 306 306 306 306
320 320 318 316 317 317 317 318 318 319 320 319 320 319 319 320 319 316 316 318 321 320 319 320 322 322 323 322 322 320 318 317 312 310 310 306 307 306 307 306 306 306 306
321 319 318 316 315 315 317 317 317 318 318 318 318 318 318 319 318 316 315 314 315 316 316 316 319 321 321 322 322 321 319 317 314 310 310 310 309 307 308 307 307 306 306
320 320 318 317 315 314 315 317 317 317 317 317 317 317 317 317 317 316 315 314 314 314 314 314 316 319 322 322 323 323 320 316 314 313 311 308 309 309 308 308 306 306 307
320 321 319 317 314 314 315 315 316 316 317 317 316 316 315 315 316 316 316 314 313 313 313 313 314 317 319 323 324 324 323 320 316 315 314 313 310 308 307 306 306 306 308
321 321 319 317 315 314 314 315 315 315 316 316 316 316 316 316 315 315 315 315 315 314 313 315 315 316 318 319 322 323 323 321 319 318 315 313 312 312 311 309 307 306 306
321 322 320 318 316 314 314 314 314 314 315 315 315 315 315 314 315 314 314 314 314 315 315 316 316 316 317 319 320 322 322 321 320 319 319 316 314 312 311 311 308 303 303
321 321 321 319 317 316 314 314 314 314 314 315 315 314 314 313 313 313 314 314 315 316 316 316 316 316 318 321 321 322 321 318 319 321 320 319 314 312 311 310 309 308 304
319 321 321 320 319 317 316 315 315 315 314 314 314 314 314 314 314 314 314 314 314 315 316 315 315 319 321 321 322 322 320 318 318 317 316 316 312 311 310 309 309 308 304
318 320 320 321 321 320 316 315 314 314 314 314 314 314 315 315 315 315 315 315 315 314 315 317 319 321 321 322 322 322 320 319 316 316 315 312 310 310 310 308 307 304 302
317 318 320 321 321 321 319 317 315 313 314 313 313 314 315 316 316 316 315 317 317 318 317 319 320 321 321 322 322 321 319 317 315 316 313 310 310 309 308 306 304 302 301
313 316 317 320 320 321 321 319 317 316 315 314 314 315 315 316 317 318 317 318 318 318 318 319 320 321 322 321 319 317 316 316 315 311 309 309 308 306 305 303 302 301 300
310 312 315 317 320 321 321 321 320 318 317 316 316 316 317 317 317 318 318 318 319 320 320 321 321 321 321 322 321 318 314 313 311 310 310 309 307 306 303 301 300 299 298
310 312 312 315 316 319 320 321 322 321 320 319 318 318 319 319 319 319 319 320 321 322 322 322 321 321 320 320 319 316 314 311 309 308 307 306 305 303 301 300 298 296 295
312 311 313 313 313 316 318 320 321 322 322 322 321 320 320 320 321 321 321 322 322 322 322 322 322 320 319 318 316 316 312 309 308 306 303 302 301 299 298 297 296 295 293
312 311 311 314 314 315 317 318 319 320 322 322 322 322 322 322 322 322 323 323 322 322 322 322 320 317 316 316 314 311 310 308 305 303 301 299 298 297 296 294 292 291 290
313 311 309 310 316 318 318 319 320 319 320 321 322 323 323 322 322 322 321 320 320 319 319 317 314 313 312 309 308 307 305 304 302 300 299 297 295 293 292 290 290 287 284
312 312 313 312 314 317 321 322 323 323 322 321 321 322 320 319 318 318 317 316 315 311 310 309 309 309 307 305 304 304 302 300 297 296 295 294 291 289 290 288 289 285 281
309 309 310 312 315 319 321 321 320 322 320 320 318 319 320 319 315 313 310 308 307 305 304 303 303 303 301 301 301 301 299 296 293 291 289 289 288 286 284 289 282 281 281
308 313 316 316 318 318 320 316 316 317 315 316 316 316 315 314 311 307 305 303 302 300 297 297 296 297 297 297 299 298 297 295 291 288 284 282 280 280 281 280 280 280 279
314 315 314 313 315 316 316 312 308 309 312 312 311 308 308 306 304 303 299 298 297 294 292 293 291 291 292 294 295 294 294 291 291 286 282 281 279 279 280 280 279 279 278
309 310 308 307 310 312 311 305 303 307 307 306 303 303 302 301 299 299 295 294 293 291 289 288 286 285 287 288 289 288 288 285 285 282 280 278 279 279 279 278 277 276 275
306 306 306 304 303 307 308 305 305 306 305 299 298 298 298 296 296 296 294 291 290 289 288 286 284 283 283 283 283 282 281 280 279 278 278 278 278 278 277 276 275 274 273
304 304 302 301 301 301 301 302 302 304 299 296 295 294 294 294 292 291 291 290 290 291 290 288 285 283 281 280 280 280 279 278 278 278 278 277 276 275 275 274 273 273 272
300 298 297 296 295 294 295 297 298 300 296 291 290 290 289 288 287 286 285 286 288 289 289 286 286 282 280 279 278 278 278 278 278 277 276 275 274 273 273 273 272 271 270

GFSMW_925_thetae_051.txt.gz
Theta_e
323 321 320 320 320 320 320 322 322 321 321 320 320 319 321 319 318 318 321 321 317 316 315 315 314 314 314 316 316 313 312 310 308 308 307 307 306 307 307 307 307 307 307
324 321 320 319 320 320 320 320 321 321 320 321 320 320 320 319 319 320 321 320 317 317 316 316 316 315 314 314 316 316 314 314 311 311 310 313 310 306 307 306 306 307 307
324 322 320 319 319 319 320 319 320 321 321 320 320 320 319 318 317 319 320 318 317 316 316 317 319 319 318 317 317 318 317 316 313 312 315 314 317 312 309 307 306 306 307
325 323 321 319 319 319 319 319 319 319 320 319 320 319 319 319 317 316 318 321 321 319 320 321 321 321 321 321 322 321 320 318 317 311 311 312 313 316 314 309 308 306 306
325 324 323 320 319 319 319 318 319 320 319 319 319 319 320 319 319 317 315 316 319 319 320 318 319 319 319 321 321 321 321 320 318 315 313 311 309 309 310 316 309 307 307
324 324 322 321 319 317 316 317 318 319 319 320 319 319 318 318 318 317 316 317 315 316 315 315 315 315 315 318 321 322 321 321 319 316 315 313 312 309 308 309 311 308 310
325 324 323 321 319 316 314 316 317 318 319 318 318 318 318 318 317 317 317 316 315 314 313 313 314 314 314 314 317 320 322 322 322 319 316 314 313 313 312 311 310 310 308
325 324 324 321 318 316 315 316 316 318 318 318 317 317 317 317 317 317 317 317 316 316 315 314 314 314 314 315 316 318 319 320 320 319 318 319 318 316 314 312 310 307 309
323 324 324 322 320 318 317 316 317 317 317 317 317 317 316 316 316 316 315 315 316 316 316 316 315 315 315 316 317 317 319 320 321 322 319 318 318 318 315 312 311 312 310
321 323 324 323 321 320 318 317 317 317 318 317 317 317 317 316 316 315 315 315 316 316 316 315 315 316 316 316 317 319 320 321 321 320 317 316 316 316 316 313 310 310 310
320 323 324 323 322 321 319 317 317 317 317 317 317 317 316 316 315 315 316 317 316 315 314 314 316 316 317 317 318 319 320 321 320 319 318 318 315 317 313 310 309 308 309
318 321 323 323 322 321 320 318 317 317 316 316 316 316 316 315 315 315 315 315 314 314 315 316 316 317 318 317 317 319 321 321 320 319 319 317 315 313 311 309 308 308 306
316 319 321 323 323 322 321 319 318 317 317 316 316 315 315 315 315 315 315 315 315 316 316 317 317 317 317 318 318 320 320 319 320 319 315 315 314 310 308 308 306 305 303
316 315 319 322 323 323 323 321 319 317 317 316 315 315 315 316 316 316 316 316 316 316 317 317 318 318 318 319 319 318 319 319 317 314 314 313 310 308 308 306 304 302 300
317 314 316 319 321 322 322 322 322 319 317 316 316 316 316 315 316 317 317 317 317 317 318 318 319 320 320 319 320 319 318 317 316 313 313 309 308 307 307 305 302 300 298
318 316 314 315 318 319 321 322 322 321 319 318 317 317 316 317 316 316 317 317 318 318 319 319 319 320 319 320 321 320 317 316 313 310 307 306 305 304 303 302 300 298 296
317 317 316 314 316 316 318 321 322 322 321 320 320 319 318 318 318 319 318 318 319 320 321 321 321 321 320 321 321 317 315 313 308 307 304 302 301 301 299 297 296 294 292
316 317 316 316 315 316 317 318 320 321 321 322 322 321 321 320 321 321 321 321 321 321 321 321 321 320 319 318 314 311 310 307 305 304 302 301 298 297 296 294 291 289 288
314 315 315 315 314 314 315 317 318 319 320 321 322 322 322 322 322 322 321 321 321 320 318 315 314 313 311 310 307 307 304 302 299 298 298 298 295 292 291 290 288 286 284
316 314 312 312 312 313 315 319 320 319 319 320 320 321 321 320 320 320 318 315 313 310 307 306 306 306 304 303 302 304 302 297 294 292 291 291 291 290 290 287 285 283 283
313 311 311 312 315 315 318 320 322 322 319 317 318 318 319 318 318 314 310 307 304 301 299 298 296 297 298 299 300 301 299 294 289 288 286 287 287 286 283 282 282 282 280
312 314 316 315 314 316 318 318 314 311 315 316 314 312 312 310 308 306 300 298 297 294 291 291 289 290 291 293 295 297 296 292 291 286 283 281 281 282 280 280 280 279 278
310 310 311 311 311 312 311 307 306 309 308 306 302 302 300 299 299 298 294 293 293 291 289 287 285 284 285 287 290 291 290 288 286 282 281 281 281 280 279 279 278 277 277
307 307 307 307 305 306 307 305 305 305 303 298 296 296 295 294 294 294 294 292 291 290 288 286 284 282 283 283 284 284 283 283 281 279 280 279 279 278 277 277 276 276 275
302 302 301 300 299 299 299 300 300 300 295 293 292 291 290 290 289 289 290 290 290 291 290 287 285 283 281 280 281 281 280 279 279 279 278 278 278 277 277 276 275 274 273
295 295 294 294 293 292 292 293 294 294 294 292 291 290 289 288 287 285 284 285 287 289 289 286 285 281 280 280 280 280 279 278 278 278 277 276 276 276 276 275 274 273 272

GFSMW_925_thetae_054.txt.gz
Theta_e
328 325 324 322 323 324 323 323 321 321 321 320 321 320 319 318 317 316 320 323 319 318 318 317 318 318 319 319 318 317 315 314 313 312 312 312 312 312 312 313 313 313 315
329 327 325 324 322 324 323 322 322 321 321 321 321 320 320 318 317 317 319 322 321 319 319 318 318 318 320 321 320 319 318 317 314 315 317 319 316 313 312 312 312 312 312
330 328 326 325 324 324 323 322 321 321 320 320 320 320 320 319 318 318 320 321 323 320 319 320 319 319 319 320 321 321 320 320 318 317 320 322 322 320 316 312 312 312 312
330 329 328 326 324 324 324 323 321 321 321 320 320 320 319 319 319 318 319 321 323 322 320 320 321 321 320 320 321 322 321 322 321 318 318 320 321 322 322 317 314 311 311
331 330 328 327 325 324 323 323 322 322 321 321 320 319 319 319 318 318 319 321 322 322 321 321 322 323 324 323 324 323 323 323 323 321 321 319 319 319 320 324 320 313 312
331 330 328 327 326 324 323 322 322 322 321 320 319 319 320 319 319 318 318 319 320 321 321 322 324 323 325 324 324 325 325 324 323 323 323 322 321 320 319 320 320 317 313
330 330 330 329 326 325 323 323 321 321 321 320 321 321 320 321 321 318 318 318 319 319 320 320 321 321 322 323 323 322 325 325 324 324 323 322 322 321 321 319 316 317 314
329 329 330 329 327 326 324 321 322 322 322 321 321 323 322 322 321 320 319 318 317 318 318 319 319 320 320 320 321 321 322 322 323 323 323 323 322 321 318 315 314 311 311
328 328 329 329 328 326 324 321 321 322 322 322 323 322 322 323 322 321 320 319 318 318 318 319 319 319 319 319 320 320 320 321 322 322 323 323 323 322 317 316 315 313 316
324 326 328 328 327 327 325 321 321 321 322 323 323 323 323 323 323 322 321 320 320 319 319 319 319 319 319 319 320 320 320 320 321 322 323 323 322 318 318 317 316 315 314
324 326 327 327 327 327 326 324 323 322 322 322 322 323 323 322 322 322 322 321 320 320 319 319 319 319 319 319 320 320 321 321 321 323 322 321 319 318 316 316 315 313 312
323 324 328 328 327 327 327 326 324 323 322 322 322 322 322 322 322 321 321 321 321 320 320 320 319 319 320 320 320 320 321 321 322 321 321 319 319 318 316 316 313 312 309
322 321 325 328 328 327 326 326 326 325 324 323 322 322 322 322 322 322 321 321 320 320 320 320 319 319 318 319 320 320 321 322 321 322 319 320 317 316 315 314 311 308 306
321 321 321 325 327 327 327 327 326 325 324 323 323 322 322 322 322 322 321 321 320 320 320 320 319 319 319 319 319 319 320 321 320 320 320 319 316 314 313 311 308 306 304
320 321 321 322 324 326 327 327 326 325 325 324 323 323 322 322 321 321 321 320 320 320 320 320 320 320 320 320 321 321 321 321 320 319 319 317 314 315 313 309 306 304 302
320 320 321 321 320 322 326 326 326 325 324 324 324 323 323 322 322 321 321 320 320 320 320 320 320 320 321 321 321 321 319 318 318 317 317 314 313 311 308 307 306 305 302
319 319 319 321 320 320 321 324 326 326 325 324 323 323 323 322 322 321 321 321 321 321 321 321 321 321 321 321 321 320 319 317 316 314 311 309 307 306 304 302 302 299 298
320 321 321 320 319 319 319 320 322 325 326 325 324 323 323 322 322 322 321 321 321 322 322 322 322 321 321 321 321 320 316 314 312 310 308 307 302 301 300 299 296 293 292
319 319 318 319 319 317 318 318 320 323 325 326 325 324 324 323 323 323 323 323 323 322 322 322 322 321 321 320 317 315 310 307 303 301 300 300 298 296 297 295 291 288 287
318 316 316 317 317 317 316 317 319 320 323 324 325 325 325 324 324 324 324 319 319 318 313 311 310 310 310 307 309 309 305 298 295 294 293 294 294 291 291 290 288 286 284
315 314 316 317 318 317 317 318 319 320 321 322 323 324 324 325 321 314 314 313 309 306 302 301 298 299 299 299 302 303 299 295 290 289 288 289 290 290 289 287 285 285 283
313 313 314 316 316 317 319 320 321 320 319 318 315 314 313 312 309 311 306 304 301 295 291 290 289 290 291 293 295 296 295 291 289 286 286 285 285 284 283 283 282 282 281
310 309 309 309 307 310 316 318 312 310 308 306 303 302 302 301 299 298 295 293 293 290 288 287 285 284 286 287 289 290 291 291 288 285 284 283 281 280 280 279 279 279 280
304 301 301 301 299 299 300 305 304 302 300 298 296 296 295 294 294 294 293 292 291 289 288 286 284 283 282 283 284 284 283 282 282 282 281 280 280 280 278 278 278 278 277
294 295 294 294 294 295 295 296 297 296 294 293 292 290 289 288 287 287 289 290 290 290 287 285 284 283 281 281 282 282 281 281 280 280 280 280 280 280 279 278 277 277 276
291 290 290 289 289 289 289 291 294 293 292 291 290 289 288 286 285 285 284 284 287 287 286 285 284 281 281 281 281 281 280 280 280 281 281 280 280 280 279 279 278 276 275

GFSMW_925_thetae_057.txt.gz
Theta_e
330 328 327 326 327 327 326 326 323 322 322 321 321 321 321 322 321 321 319 319 318 318 315 317 318 319 318 318 318 317 317 316 316 315 315 315 315 315 315 315 315 316 317
331 329 328 326 327 326 326 324 323 322 322 322 321 321 321 320 320 321 322 319 320 319 315 317 318 319 319 320 320 319 318 316 315 314 315 317 316 315 316 315 315 315 316
332 331 329 328 326 327 326 324 322 322 322 321 323 321 320 320 319 318 320 322 323 320 318 318 319 319 321 322 322 322 321 320 318 317 318 320 321 319 318 316 316 316 315
331 331 330 329 327 326 326 325 323 322 323 321 321 321 320 319 319 318 317 318 322 322 317 320 321 321 320 322 324 323 323 322 321 321 319 321 323 324 322 319 317 316 316
331 332 331 329 328 327 326 325 322 323 322 322 321 321 321 320 318 318 317 319 321 320 321 320 322 322 322 322 322 323 324 323 323 322 322 321 322 322 323 325 321 318 317
330 331 330 329 329 327 327 325 324 322 322 322 322 321 320 320 319 318 318 320 321 322 321 322 322 323 324 324 323 323 324 324 324 323 324 323 322 322 322 324 323 322 319
328 331 331 331 329 328 327 325 324 324 322 321 321 322 322 320 320 319 319 318 321 322 323 323 322 323 324 324 323 324 324 325 324 322 324 323 323 323 323 323 322 322 321
328 330 332 332 330 329 327 326 324 324 323 322 322 322 322 321 321 320 320 319 319 320 322 323 323 324 325 325 324 322 323 321 323 323 322 324 321 323 323 323 323 323 319
328 329 330 331 330 330 329 327 325 324 324 323 322 322 322 321 321 321 321 321 320 320 320 322 323 323 323 324 324 325 324 323 323 324 324 324 323 322 322 323 322 321 321
325 327 329 330 330 330 329 328 326 324 325 324 323 323 322 322 322 322 323 323 321 320 321 321 322 322 322 323 322 322 322 322 323 323 323 323 323 322 323 323 322 319 319
324 325 326 328 330 330 330 329 327 325 324 325 325 324 324 325 324 324 324 324 323 322 321 321 321 321 321 321 321 321 321 321 322 322 323 323 323 323 323 322 319 317 316
323 324 326 328 329 330 330 329 328 326 324 324 326 326 327 326 326 325 326 325 325 324 323 321 321 321 321 321 322 322 322 322 322 322 322 323 323 323 322 320 318 317 315
322 322 323 328 330 330 330 330 329 327 326 325 325 327 327 327 327 327 327 327 326 325 324 323 323 322 322 322 322 322 322 322 322 322 323 323 323 323 322 319 316 315 314
321 321 322 323 328 329 329 330 329 329 328 327 326 326 327 327 327 327 327 326 326 326 325 324 323 323 323 322 322 322 322 322 322 322 322 322 323 322 320 317 316 314 312
321 321 322 322 323 326 328 329 329 329 329 328 327 327 327 327 326 326 326 326 325 325 324 324 324 324 323 323 322 321 321 321 321 321 322 322 322 322 320 317 314 312 309
320 321 322 322 322 322 323 327 328 329 329 329 329 328 327 327 326 326 326 326 325 325 325 324 324 324 323 322 321 321 322 321 321 322 322 322 322 321 320 317 314 313 308
320 321 322 322 322 322 322 322 325 328 329 329 329 328 328 327 327 327 326 326 325 325 324 324 324 323 323 322 321 321 321 322 323 322 322 320 318 318 316 311 307 304 302
321 321 321 320 319 320 321 321 321 323 327 328 328 328 328 328 327 327 326 326 325 325 324 324 324 324 323 323 322 321 321 321 322 321 319 315 312 309 308 304 300 297 297
319 319 318 318 319 319 320 320 320 320 323 327 328 328 327 327 327 327 327 326 326 326 325 325 325 324 323 322 322 322 320 318 315 313 310 308 305 301 302 300 295 291 290
317 316 316 317 318 318 319 321 320 319 320 323 327 328 327 326 326 326 326 326 325 324 318 319 319 319 319 319 319 318 315 306 301 298 295 296 295 292 293 293 290 287 284
314 314 313 313 312 310 311 316 321 321 320 320 322 326 327 327 326 326 326 318 310 309 306 305 301 304 304 301 304 306 303 295 290 288 287 287 288 289 289 289 289 286 285
312 310 309 307 304 301 302 306 316 320 322 323 324 319 318 316 314 312 309 310 306 299 293 291 290 290 292 294 296 298 298 293 290 286 285 285 286 286 286 285 284 283 282
307 305 304 301 297 294 296 299 302 308 310 311 307 303 304 303 303 303 299 296 295 292 290 288 286 285 286 286 290 290 290 290 287 285 283 282 282 282 282 280 280 281 282
302 300 298 297 292 290 291 292 296 298 298 297 296 294 294 294 294 294 294 293 291 290 288 287 285 283 283 283 284 284 285 284 282 281 281 281 281 280 280 279 279 280 279
295 295 292 293 289 288 288 289 292 293 292 291 290 289 288 287 286 286 287 288 288 288 286 285 284 283 282 282 282 283 282 282 282 281 281 281 281 282 281 280 279 279 279
289 288 287 287 286 286 286 287 288 290 290 289 288 287 286 285 285 284 283 283 284 285 284 284 282 282 282 282 282 282 282 282 283 284 284 283 283 282 281 281 280 278 277

GFSMW_925_thetae_060.txt.gz
Theta_e
331 329 328 326 329 327 326 325 324 323 323 323 322 323 322 322 321 319 321 323 322 321 318 317 318 318 319 318 319 319 319 319 317 318 318 317 316 317 316 317 318 319 319
331 330 329 327 328 328 326 326 324 322 322 322 322 322 322 322 321 321 321 320 320 320 317 317 317 317 319 318 318 318 318 318 317 317 316 315 316 315 316 315 315 315 317
331 331 331 328 328 328 327 326 324 323 322 322 321 321 321 320 319 321 320 319 317 317 317 317 316 317 320 318 318 317 318 317 316 316 316 316 316 316 316 315 316 315 316
331 332 331 330 327 328 326 324 324 323 323 322 322 321 321 320 318 321 320 320 319 317 316 319 316 314 319 321 321 319 320 319 318 315 315 318 321 322 319 317 316 317 316
330 332 331 330 329 328 326 324 323 323 323 323 322 322 321 320 317 319 321 320 319 321 319 318 321 318 314 320 323 323 321 322 323 320 319 318 320 322 322 320 319 317 317
328 331 331 330 330 327 327 325 324 323 323 322 323 322 321 320 318 318 317 318 320 322 321 318 319 322 322 319 322 323 324 323 324 323 323 321 322 322 323 320 321 319 318
329 331 332 331 331 329 328 326 324 323 323 322 322 322 322 321 320 318 317 316 317 321 321 320 319 322 322 322 322 323 323 324 323 323 322 322 322 321 322 322 321 320 321
329 329 331 332 331 330 330 326 325 322 323 323 322 322 322 322 321 319 317 317 317 320 320 321 319 319 323 322 324 323 323 323 324 322 321 322 322 321 321 321 322 319 321
327 329 331 332 331 331 329 328 326 325 322 322 323 322 322 321 321 320 319 318 317 319 322 322 321 320 322 323 324 324 323 322 323 322 322 322 322 321 320 322 323 322 320
326 328 329 332 331 331 330 329 327 325 325 323 322 322 322 323 322 321 321 320 319 318 319 321 322 322 322 323 325 325 322 323 323 323 322 323 322 322 321 321 322 322 321
325 325 328 329 332 332 331 330 328 326 325 324 323 322 322 322 323 322 323 321 321 321 320 320 321 322 324 324 325 324 323 323 323 323 322 324 323 322 322 323 322 322 322
324 325 325 328 330 332 332 331 329 328 326 326 325 323 322 322 323 323 323 323 323 322 321 320 321 321 321 322 323 323 323 323 323 323 323 322 322 322 322 323 323 323 322
322 322 323 328 329 331 331 332 331 329 328 327 327 326 324 324 324 323 323 323 323 324 323 322 321 321 322 322 322 322 322 322 322 321 321 321 322 322 322 322 322 322 321
321 322 323 323 323 329 330 331 332 330 329 328 327 328 327 326 325 326 325 325 326 325 325 325 323 322 322 322 322 322 322 322 322 322 322 322 322 322 322 322 322 321 319
320 321 322 322 323 323 323 328 331 332 330 329 328 327 328 328 328 327 327 327 327 327 326 326 325 325 324 322 322 322 322 322 322 322 322 322 322 322 322 322 321 320 317
320 320 321 322 321 321 321 321 323 330 332 331 329 329 327 328 328 328 328 328 328 327 328 327 326 326 325 324 324 323 323 323 322 322 322 322 322 322 322 322 322 321 318
320 320 320 320 320 320 320 321 321 321 326 332 331 330 329 328 328 328 328 328 328 328 327 327 327 326 326 325 325 324 323 323 323 322 322 321 321 321 322 322 321 320 314
319 318 317 317 318 319 319 319 321 322 322 324 330 331 331 330 329 329 328 327 327 327 327 326 326 325 325 325 324 324 323 322 321 322 323 322 321 322 321 319 311 303 300
316 315 314 314 315 313 310 311 314 318 321 322 321 328 330 330 330 329 328 328 327 327 327 326 326 325 325 324 324 323 323 320 320 319 318 319 317 312 310 308 298 291 289
314 312 311 311 309 305 304 306 309 312 316 317 323 323 324 329 329 329 329 328 328 327 327 323 320 320 321 320 323 323 320 314 307 302 300 300 300 296 295 295 290 286 285
311 308 307 306 303 299 298 301 302 305 302 306 315 314 316 325 329 328 328 328 327 321 311 309 305 306 306 307 313 318 316 304 293 290 289 288 291 291 291 292 290 285 284
307 304 303 302 299 295 294 296 296 297 299 302 308 306 308 309 316 320 318 314 307 301 296 294 291 293 297 298 300 301 302 295 291 286 285 285 287 287 287 285 284 283 283
301 299 298 297 294 292 292 292 292 295 295 296 296 295 297 300 300 302 301 299 299 294 290 289 287 286 286 287 289 289 289 288 285 284 283 282 282 282 282 282 282 282 282
294 293 292 291 290 289 289 289 290 292 291 290 289 288 287 288 291 292 293 292 291 289 288 287 285 284 284 284 284 283 282 282 282 282 282 282 282 281 280 280 280 280 280
289 289 288 288 287 287 286 287 288 289 289 288 287 286 286 285 285 285 285 286 287 287 286 284 284 283 283 283 283 283 282 282 282 282 282 282 281 280 280 279 279 279 278
286 285 284 284 284 285 285 286 286 287 287 286 286 285 284 284 284 284 284 283 283 283 283 283 283 283 283 283 283 283 283 284 284 283 283 282 281 280 280 279 278 276 275

GFSMW_925_thetae_063.txt.gz
Theta_e
326 325 328 329 328 327 327 325 323 324 324 325 324 325 325 323 323 321 320 323 320 324 325 324 323 323 324 323 321 319 318 319 320 319 319 319 320 320 320 320 320 320 319
327 325 328 328 327 326 326 325 323 322 321 321 323 323 323 323 322 321 320 323 322 321 322 322 322 321 323 321 319 319 319 319 319 318 318 313 315 318 318 318 319 320 320
328 326 326 327 326 325 326 325 323 322 321 322 322 322 322 321 321 321 320 321 320 319 320 318 321 320 320 319 319 319 319 318 318 318 316 312 313 313 315 316 316 316 318
328 327 325 325 326 325 326 325 324 321 321 322 322 321 321 321 320 320 320 320 320 320 317 318 318 318 318 318 318 318 317 317 317 317 316 315 317 316 317 315 315 315 315
328 328 326 325 326 326 326 324 323 322 322 321 321 321 320 320 320 320 320 319 320 320 319 318 316 316 317 317 319 316 315 317 317 317 315 315 316 319 318 317 316 315 316
328 328 327 326 326 326 325 324 324 323 323 322 321 321 320 319 318 320 320 320 318 318 317 315 316 315 315 319 322 318 318 318 319 320 316 315 316 319 320 317 317 317 317
328 328 328 326 325 325 324 323 323 323 323 322 322 321 320 319 317 319 320 320 321 320 317 316 318 319 317 315 320 322 322 320 320 321 322 320 319 320 321 321 319 318 319
329 328 328 327 326 326 324 323 322 323 323 322 322 321 321 319 318 317 319 319 319 320 320 318 316 318 320 321 319 317 322 322 322 322 322 322 322 322 320 321 320 316 318
326 329 328 328 327 326 325 324 323 323 323 323 322 322 322 320 319 317 317 318 317 318 320 320 320 317 317 321 322 322 321 323 323 323 322 322 322 320 316 320 321 319 318
321 328 328 327 328 327 326 324 323 322 322 323 322 322 322 322 321 320 318 317 316 316 317 319 320 321 319 317 322 323 322 322 322 322 322 322 322 321 319 320 320 320 320
319 321 328 328 329 328 327 325 324 323 322 321 322 323 322 322 321 321 319 318 317 316 316 317 320 321 321 320 319 322 322 322 323 322 322 322 321 321 321 321 320 320 320
320 320 320 322 328 328 328 326 325 324 323 322 321 321 322 322 322 321 321 320 319 318 317 316 318 320 321 321 321 321 323 323 323 322 322 322 321 322 322 321 321 321 321
319 319 320 320 321 324 328 328 326 325 324 323 322 322 322 321 322 322 322 321 321 320 319 318 317 318 319 320 321 322 322 323 323 323 322 322 321 321 322 322 322 321 321
319 319 319 319 319 319 320 324 328 327 325 325 323 323 322 321 321 321 321 322 321 321 321 320 320 319 319 319 319 320 322 323 323 322 322 322 322 321 321 321 321 321 321
319 319 318 317 318 318 319 320 320 322 328 326 325 324 323 323 322 321 321 322 321 322 322 322 321 321 320 320 320 320 320 320 321 321 321 321 320 320 320 320 320 320 320
318 317 316 316 317 316 315 314 315 316 320 328 327 326 326 324 324 323 323 323 322 322 323 322 323 323 322 321 320 320 320 320 320 320 320 320 320 321 321 321 321 321 320
315 315 314 314 313 309 308 307 309 312 315 319 322 327 327 326 326 325 325 324 325 325 324 324 324 324 324 324 323 322 321 321 320 320 320 320 321 321 321 321 321 321 321
312 311 311 310 307 303 303 303 306 307 311 309 310 313 318 322 326 326 327 327 326 326 326 325 325 326 326 325 325 324 324 321 321 321 321 321 321 321 321 320 317 310 307
308 308 307 304 301 298 298 300 302 302 303 302 303 307 313 311 314 322 326 327 327 327 327 327 326 326 326 326 326 325 325 322 321 320 319 320 320 321 320 317 304 293 289
304 303 302 300 297 295 295 297 297 298 297 298 300 303 307 305 306 309 314 327 326 326 326 326 325 324 324 324 324 324 322 318 313 308 308 308 312 310 308 305 293 286 284
299 298 298 296 293 292 293 294 294 294 294 296 297 298 298 298 300 302 308 320 326 325 322 316 310 312 314 314 316 321 320 315 304 298 294 293 296 296 295 294 289 287 285
294 293 293 292 290 289 289 290 291 291 293 293 292 291 290 291 294 297 300 305 304 305 299 298 295 296 297 301 305 306 308 299 293 287 287 286 287 287 288 287 285 285 284
291 290 290 289 288 287 287 288 288 289 290 290 288 287 287 287 289 290 291 295 296 294 292 290 287 286 286 287 288 290 289 287 286 285 284 283 283 283 283 283 283 283 283
289 287 287 286 286 286 286 287 287 288 288 287 286 285 285 285 285 285 286 287 290 290 289 287 286 285 284 283 283 282 282 282 282 282 281 282 282 282 281 281 280 280 280
286 285 285 285 285 285 285 285 286 286 286 285 284 284 284 284 283 283 284 284 284 286 285 285 285 284 283 283 283 283 282 282 282 282 281 280 280 280 279 278 277 277 277
283 283 283 284 284 284 284 284 285 285 285 284 284 283 283 283 282 282 282 282 283 283 284 284 284 284 284 284 283 283 283 283 282 281 280 280 279 279 278 276 275 275 275

GFSMW_925_thetae_066.txt.gz
Theta_e
324 326 328 328 327 326 326 326 326 328 328 327 327 326 326 325 325 325 324 325 324 324 325 320 316 315 314 316 320 320 320 320 320 321 318 319 319 319 319 318 317 316 316
323 326 327 326 325 325 325 324 325 325 326 325 325 325 326 325 324 324 323 323 323 322 323 324 319 321 318 319 318 320 318 319 320 319 318 315 316 319 319 319 319 319 318
325 326 327 326 325 325 324 324 324 325 324 324 324 323 323 322 323 322 321 322 322 321 324 324 323 322 323 321 322 320 318 318 319 319 318 313 315 313 318 318 319 319 319
325 326 327 325 324 324 325 324 323 322 322 321 322 322 321 321 321 321 321 321 321 322 323 324 323 321 323 323 322 319 318 318 318 317 319 318 316 313 313 315 317 318 319
325 326 327 326 325 324 324 323 323 322 321 322 321 321 322 321 321 321 321 321 322 320 321 320 322 320 322 321 320 319 318 318 318 317 317 315 317 318 316 315 315 314 315
326 324 325 326 324 324 324 323 322 322 321 321 322 321 321 321 320 320 319 320 320 319 318 318 320 319 319 319 319 318 318 317 316 316 317 316 315 317 318 315 315 315 316
326 325 324 325 324 323 323 322 322 322 321 321 321 321 320 320 319 320 320 320 319 318 317 317 318 320 318 317 319 317 317 314 314 317 317 316 316 315 315 318 317 316 318
326 326 324 324 325 324 322 322 322 322 322 322 321 321 320 319 319 319 319 319 319 319 320 317 318 317 317 318 318 320 317 314 314 317 318 317 319 316 317 319 319 315 316
326 327 325 324 324 323 322 322 322 322 322 322 321 320 320 319 318 318 319 319 320 319 319 318 316 315 316 315 314 316 321 321 320 319 319 319 319 321 321 321 321 319 315
327 327 326 325 324 324 323 322 322 322 322 322 322 321 320 320 319 318 318 318 318 319 320 319 317 316 317 318 320 320 318 318 318 321 321 321 321 321 321 322 321 318 318
322 325 326 326 326 325 323 323 322 321 322 322 322 322 321 321 320 319 318 317 318 318 318 319 320 319 317 317 317 319 321 322 322 321 322 322 322 322 321 321 321 320 319
319 320 322 324 326 326 324 323 322 321 321 322 322 322 322 322 322 321 319 318 316 317 317 317 318 319 319 319 319 318 318 321 322 322 321 321 321 321 321 321 320 320 320
318 318 318 319 319 320 326 325 324 323 322 321 321 321 322 322 322 321 321 320 319 317 316 316 315 316 319 320 320 319 319 319 320 321 322 321 321 321 320 320 320 319 319
317 317 317 318 317 316 316 316 318 319 322 323 321 320 321 321 321 321 321 321 320 320 318 318 317 316 315 317 319 320 320 319 319 320 321 321 321 321 320 320 320 320 319
316 317 316 313 311 309 309 309 310 312 315 323 323 322 321 321 321 321 321 321 321 321 320 320 319 318 317 316 316 317 318 319 319 320 320 321 321 321 321 320 320 319 319
315 314 312 309 306 305 304 305 306 308 312 311 311 319 323 322 322 321 320 320 321 321 321 320 320 320 319 319 318 317 317 318 318 319 320 321 321 321 321 321 321 320 319
312 311 307 303 300 299 300 301 302 304 304 304 304 306 308 314 321 322 322 321 320 321 321 321 321 320 320 320 320 320 319 319 319 318 318 319 319 319 319 320 320 320 320
308 305 302 299 297 296 296 297 298 298 298 299 300 302 304 308 307 309 314 322 322 322 321 321 321 321 321 321 322 321 320 318 319 319 319 319 319 319 319 318 318 315 312
303 300 297 295 294 293 294 295 295 294 294 296 297 298 299 300 301 303 304 307 310 319 323 323 322 322 322 322 322 322 322 319 319 319 319 319 319 319 318 318 312 303 298
298 296 294 292 291 290 291 293 292 292 293 294 294 294 293 294 296 297 298 302 303 306 314 325 324 324 324 324 324 324 322 320 319 319 317 317 318 319 319 318 309 291 287
294 293 291 289 288 288 290 290 290 291 292 291 290 289 289 289 291 291 293 296 299 301 308 315 309 306 306 311 316 321 323 318 315 307 301 301 303 307 304 303 295 289 286
290 290 289 287 287 287 288 288 289 289 289 288 287 286 286 286 287 288 289 292 294 295 293 292 289 288 289 291 296 306 308 304 299 291 289 288 287 287 287 287 286 284 284
287 287 286 286 285 286 286 287 287 287 286 285 285 285 284 284 285 285 286 287 290 290 289 288 286 285 284 284 285 287 288 289 287 286 285 284 283 283 283 283 283 282 282
285 285 285 285 284 284 284 285 286 285 284 284 283 283 283 283 283 284 285 285 286 287 287 285 284 284 283 283 283 283 282 282 282 283 281 282 282 280 282 282 282 282 280
283 283 284 284 283 283 283 284 284 285 284 283 282 282 282 282 282 282 283 284 284 285 284 284 284 284 284 283 282 282 282 281 281 281 280 279 278 277 277 277 277 277 276
281 281 282 282 281 281 282 282 283 282 282 281 281 280 280 280 280 281 280 280 280 282 282 282 283 283 283 282 282 281 281 281 280 279 278 277 276 276 275 275 274 274 274

GFSMW_925_thetae_069.txt.gz
Theta_e
324 325 327 327 328 327 327 327 327 326 327 328 327 326 326 325 325 327 327 327 327 327 325 320 316 316 315 313 312 315 317 317 320 319 317 317 317 317 316 316 316 316 315
321 327 326 325 325 325 326 327 328 325 327 327 326 326 325 325 325 326 326 324 325 327 324 322 316 313 311 314 315 316 317 318 320 319 317 315 317 317 317 316 316 316 316
323 328 327 325 325 324 324 326 327 327 326 327 326 326 325 324 324 324 324 324 324 326 324 323 318 315 312 316 317 318 318 318 319 319 318 314 318 314 318 317 317 317 316
324 327 326 325 324 324 324 325 324 325 326 326 325 325 325 324 324 323 323 323 324 325 325 324 320 318 315 317 318 319 319 319 318 318 319 319 318 315 314 315 318 318 318
324 326 326 325 324 324 322 323 324 324 324 325 325 324 323 322 322 323 322 322 322 322 322 322 323 318 319 317 318 318 319 319 319 318 317 318 316 316 314 314 313 316 318
323 324 326 325 324 323 322 322 322 323 323 323 322 322 321 320 321 321 321 321 322 322 321 321 323 322 321 321 319 320 319 318 318 319 319 317 317 317 317 314 314 313 314
323 324 325 324 323 323 322 321 321 321 322 322 321 321 321 320 320 321 321 321 321 321 321 321 320 321 321 321 322 320 319 317 318 319 318 318 316 316 317 318 316 315 317
323 324 325 324 323 323 322 321 321 321 321 321 321 321 321 321 319 320 320 321 321 320 320 319 319 321 321 321 321 321 320 319 318 318 318 318 316 315 316 316 316 313 314
324 323 325 324 323 323 322 321 321 321 320 320 320 321 321 321 320 319 320 320 320 320 318 318 318 320 319 319 318 319 319 318 317 316 316 315 316 316 316 315 316 316 316
324 323 324 324 324 323 322 321 321 321 320 321 320 320 320 320 320 319 319 319 320 319 318 318 317 318 319 320 319 318 317 318 317 316 314 314 315 318 318 319 319 319 319
324 324 323 322 323 322 321 321 321 321 320 320 320 320 320 320 319 319 318 319 319 319 319 319 318 318 318 318 318 317 316 316 318 320 320 319 318 319 319 319 320 320 319
322 323 323 323 323 323 322 322 321 321 321 321 321 320 321 320 320 319 318 318 319 318 318 319 319 319 318 317 318 319 319 319 318 317 317 318 318 319 320 320 320 320 319
318 317 316 316 317 321 323 322 322 322 321 321 321 321 321 321 321 320 320 319 319 318 318 318 317 318 319 319 318 317 317 318 319 320 321 320 320 320 320 320 320 320 320
315 313 311 310 309 310 311 311 311 313 314 319 321 321 321 321 321 321 321 320 320 319 318 318 317 316 316 318 319 319 318 318 317 317 317 318 319 320 319 319 320 319 319
312 308 307 305 304 304 305 305 306 307 309 315 315 317 320 321 321 321 321 321 320 320 319 319 318 317 316 315 315 317 318 318 318 318 318 318 318 319 319 319 319 318 318
309 305 302 301 300 299 300 301 301 301 302 303 304 306 311 314 318 320 321 321 320 320 320 319 319 318 318 318 317 316 315 316 317 318 318 318 318 318 319 319 319 318 318
306 302 300 298 297 296 297 297 296 297 298 298 299 300 302 304 305 307 311 317 320 320 320 320 320 320 320 319 319 319 317 316 316 316 316 317 317 318 318 318 319 320 320
301 298 297 295 294 293 294 294 294 294 295 295 296 295 295 296 298 300 302 303 305 308 312 319 320 320 320 320 320 320 319 317 316 316 317 317 317 317 317 318 318 319 319
297 294 293 292 291 291 292 292 292 293 293 292 292 291 291 292 294 295 295 297 299 301 302 305 308 314 320 321 320 321 319 317 317 318 318 317 317 318 318 317 316 315 311
293 291 290 289 289 289 290 290 291 291 290 289 288 288 287 289 290 290 291 292 294 296 297 298 298 298 302 308 312 316 315 317 317 318 318 317 316 316 318 317 315 303 293
292 290 288 287 288 289 289 289 290 289 287 287 286 285 285 287 287 287 288 290 291 292 291 290 290 289 288 291 293 302 308 311 316 312 303 299 297 301 304 307 309 298 286
288 288 287 286 286 287 288 288 287 286 286 285 284 284 284 284 285 285 286 287 288 288 287 286 285 285 284 284 286 292 297 301 297 288 287 286 286 288 290 290 285 284 283
286 286 286 285 285 285 286 286 285 284 284 284 283 283 282 283 284 284 285 285 286 286 285 285 284 284 283 283 283 283 284 285 284 283 282 281 281 282 281 282 284 284 283
285 285 285 284 284 284 284 284 285 283 283 283 282 282 282 281 281 282 282 283 284 284 284 284 284 283 283 283 282 282 282 281 281 281 279 279 279 279 280 280 278 279 278
283 283 283 283 282 282 282 283 282 282 281 281 280 280 280 280 280 280 281 281 281 282 282 281 282 282 282 282 281 281 280 280 279 279 278 277 277 276 276 275 275 275 275
280 280 280 280 281 281 280 281 281 281 281 280 280 279 279 279 279 279 279 279 279 280 280 280 280 280 279 279 279 280 280 279 279 277 276 275 275 274 274 273 273 273 272

GFSMW_925_thetae_072.txt.gz
Theta_e
324 324 326 328 329 330 329 329 327 327 326 327 326 326 326 326 326 326 327 326 326 327 327 325 324 322 320 319 317 315 317 318 319 318 316 316 317 317 317 317 317 317 317
321 324 325 326 327 327 328 328 325 326 326 326 325 326 325 324 324 326 327 326 326 326 326 325 322 320 319 318 318 315 316 318 319 318 316 314 316 317 317 317 317 316 316
321 325 325 326 326 326 325 326 324 325 326 326 324 324 325 325 324 324 325 327 326 326 326 324 320 318 317 316 317 315 316 318 319 319 318 315 318 316 317 317 316 316 316
319 325 325 325 326 325 324 325 323 323 325 326 324 324 324 324 324 324 324 324 325 326 326 324 322 316 315 314 314 313 317 317 318 318 319 319 318 317 315 316 318 317 316
320 325 325 325 325 325 323 323 325 323 324 324 326 326 325 323 323 323 324 324 323 325 325 325 324 317 313 312 312 314 317 317 318 318 318 317 317 317 315 315 314 317 319
319 323 324 325 325 324 322 323 323 321 321 322 325 325 324 323 323 323 323 323 323 323 325 324 322 319 316 312 314 316 317 318 318 319 319 318 316 315 315 314 313 313 315
317 323 325 325 325 323 322 322 321 320 321 323 324 323 323 322 321 321 321 322 322 321 322 324 323 323 321 318 315 317 318 319 319 318 319 319 318 317 315 316 315 315 316
317 323 325 324 324 322 322 322 321 320 322 322 322 321 321 321 321 320 321 321 321 321 321 321 321 321 321 321 319 319 317 319 319 318 317 317 318 318 317 315 315 314 313
313 321 324 323 324 323 321 321 321 320 320 321 321 321 321 320 319 319 320 321 321 321 321 321 321 321 322 321 321 321 320 318 318 317 317 317 316 318 318 315 316 316 316
322 324 324 324 323 323 321 321 320 320 320 320 320 320 321 320 320 320 320 319 320 321 319 320 320 320 320 320 321 321 321 321 320 321 320 318 317 316 316 317 315 315 315
324 323 324 323 323 322 321 320 320 320 319 319 319 320 320 320 320 319 319 319 319 319 319 318 318 318 319 320 320 320 320 319 319 319 319 317 317 316 315 316 317 316 316
318 322 322 322 321 321 321 320 320 320 319 320 319 319 319 319 319 319 318 318 319 319 319 318 318 318 317 318 319 319 318 318 318 318 318 317 316 316 315 316 317 317 318
311 311 313 314 317 320 320 320 320 320 320 320 319 319 319 319 320 319 319 319 319 318 319 318 319 319 318 317 317 318 319 318 318 317 316 317 317 318 318 318 319 319 319
308 307 307 307 308 309 308 309 308 310 315 320 321 320 319 320 320 321 320 320 319 319 318 318 318 318 318 318 319 318 317 318 318 318 318 317 317 317 316 317 318 318 319
304 304 304 303 303 302 302 301 301 302 306 310 311 312 316 320 320 321 321 321 321 320 319 319 318 318 318 318 317 317 318 318 317 317 317 317 317 318 318 317 318 318 318
303 301 300 299 299 298 297 297 298 298 300 300 301 303 306 309 312 314 314 319 320 321 321 320 319 318 317 316 316 316 316 316 317 317 317 317 317 317 316 317 317 317 317
301 299 297 295 295 295 295 294 295 295 296 295 295 296 297 298 300 302 305 307 310 312 313 317 318 319 319 319 319 318 316 315 316 315 316 316 316 316 316 316 316 317 318
298 296 294 292 292 293 292 292 293 293 292 291 290 291 292 293 294 296 297 298 300 301 303 305 305 306 305 307 310 313 315 316 316 317 316 316 316 316 316 316 316 315 316
294 292 291 290 290 290 291 291 290 290 289 288 287 287 288 290 291 291 292 293 295 297 297 296 295 295 294 293 298 302 307 309 315 317 317 317 316 316 316 315 315 314 314
291 290 289 289 289 289 290 290 288 287 287 286 285 285 287 288 288 288 289 291 292 292 291 288 288 288 288 287 292 298 302 305 306 313 303 302 302 311 314 311 313 314 301
290 288 288 287 287 288 288 287 286 286 285 284 283 283 285 286 286 286 287 289 289 288 287 286 285 285 284 284 286 293 296 297 294 289 287 286 286 294 299 298 300 298 287
287 287 286 286 286 286 286 285 284 284 284 283 282 282 282 284 283 284 285 285 286 286 285 285 284 283 283 283 283 282 284 285 283 282 281 281 282 283 285 284 282 283 283
286 286 286 285 284 284 284 285 283 283 283 282 282 281 281 281 282 282 283 284 284 284 284 284 283 283 282 282 281 281 280 280 280 279 279 278 278 278 278 278 279 280 279
285 284 284 284 283 283 282 282 282 282 282 281 281 281 281 280 281 281 281 282 282 281 281 281 281 281 281 280 281 281 280 280 279 279 278 278 277 276 276 277 276 275 275
282 282 282 282 282 281 281 281 281 281 281 280 280 279 279 280 279 279 280 280 280 280 280 280 280 280 280 280 280 280 280 280 280 281 280 277 276 274 274 273 273 274 274
279 279 279 279 279 279 279 280 280 281 280 279 279 279 278 278 278 278 278 278 278 278 279 279 279 279 279 279 279 278 277 278 278 276 274 273 273 272 272 271 271 271 271

GFSMW_925_thetae_075.txt.gz
Theta_e
317 322 326 328 328 329 328 328 327 327 326 327 325 327 327 327 327 327 326 325 325 327 327 326 326 325 322 320 319 319 320 320 320 319 318 318 318 318 318 318 318 318 318
316 322 327 328 328 328 328 328 328 327 327 326 326 325 325 325 326 326 326 327 326 325 326 325 325 324 322 320 318 318 320 320 319 320 320 321 319 318 318 317 318 318 318
316 320 327 328 328 327 328 328 327 327 326 325 325 325 324 324 324 325 326 325 325 324 326 325 324 322 320 320 318 317 318 319 319 320 321 322 324 319 318 318 317 317 317
315 317 327 328 328 328 328 326 325 326 325 324 325 325 324 324 324 324 326 325 325 325 326 325 324 322 319 319 318 317 317 318 319 319 318 321 320 322 321 316 318 317 317
316 320 326 327 328 328 327 325 325 325 324 324 325 324 324 325 323 324 324 325 325 326 326 325 323 321 318 317 317 316 316 318 320 320 319 318 319 320 322 322 318 317 317
317 320 325 326 327 327 325 322 324 324 324 323 325 325 324 323 323 323 323 324 324 324 325 325 324 319 316 317 317 317 317 317 319 319 320 319 319 319 318 318 318 319 317
319 324 327 327 327 326 323 322 323 322 323 323 324 325 324 324 323 323 323 323 323 323 324 324 324 322 320 315 314 314 315 316 317 319 319 319 319 319 318 317 317 317 316
316 324 327 327 326 325 322 323 322 321 320 321 322 324 324 323 323 322 322 322 322 322 323 323 324 322 319 319 315 313 312 313 317 317 318 319 319 319 318 317 317 319 317
324 319 326 327 326 324 322 322 321 320 319 320 321 321 321 321 321 321 320 321 321 322 321 323 321 322 322 320 317 314 316 316 317 317 318 318 318 318 317 317 316 316 319
325 323 326 325 325 322 321 321 322 322 320 319 322 322 321 321 320 320 319 320 321 321 321 320 321 322 322 322 321 319 318 318 317 318 318 318 318 317 317 317 316 316 316
325 325 324 324 323 322 321 321 321 321 321 320 320 321 320 320 320 320 320 320 319 320 321 321 320 320 321 321 321 321 321 320 318 318 318 318 318 319 319 318 316 316 316
314 321 324 323 322 321 321 321 320 320 320 320 319 319 319 319 318 319 320 320 319 319 319 319 319 319 320 320 319 319 320 320 320 320 319 319 319 318 319 318 316 317 317
309 309 311 312 315 317 317 315 317 319 319 319 319 319 319 318 319 318 318 318 319 319 318 318 318 318 319 320 319 320 320 319 319 319 319 319 318 318 317 317 317 317 317
305 305 305 305 305 305 305 306 308 310 318 320 320 318 319 319 319 319 319 318 318 319 319 319 319 319 319 318 318 318 319 319 319 319 318 318 319 319 319 319 318 317 317
302 301 300 301 301 301 302 302 302 303 305 306 306 307 311 316 319 319 319 320 320 319 318 318 318 319 319 319 319 318 318 318 319 319 319 318 318 318 318 318 318 318 318
300 298 297 297 297 297 298 298 298 297 299 297 297 298 300 303 305 308 312 315 316 316 318 317 317 317 315 313 316 317 318 318 318 318 319 318 318 318 318 317 317 317 318
299 297 295 295 294 294 295 295 294 294 293 293 293 293 295 296 297 298 301 303 304 306 306 306 307 307 304 303 307 311 313 314 316 317 318 318 318 317 317 317 316 317 317
296 294 293 293 292 293 293 292 291 291 291 290 290 291 293 293 294 295 296 297 299 298 297 297 297 296 294 296 299 304 308 309 311 312 314 315 315 316 316 316 315 315 315
293 292 291 291 291 291 291 290 289 289 288 288 288 289 290 291 291 292 293 294 295 293 290 289 289 288 288 291 295 300 302 304 303 304 302 297 300 305 309 312 312 314 309
290 290 289 289 289 289 289 288 288 287 286 285 286 287 287 288 289 289 290 291 290 289 287 286 286 285 286 285 289 294 293 295 291 290 288 286 292 295 299 301 302 301 293
289 288 287 287 287 286 287 287 286 285 284 284 284 285 285 286 287 287 288 288 287 287 286 285 285 284 283 283 283 287 286 285 283 282 281 282 282 283 285 290 290 285 284
287 287 286 286 285 286 285 285 284 284 284 283 283 283 283 284 284 285 285 286 286 286 285 285 284 283 282 281 281 281 281 283 281 279 279 279 279 280 280 279 279 280 281
286 285 285 284 284 284 284 284 283 283 283 283 282 282 282 282 283 283 283 283 283 283 283 283 283 282 282 281 279 280 279 279 279 279 278 278 278 278 279 281 281 280 278
284 284 284 283 283 282 283 282 282 282 282 282 282 281 281 281 281 281 281 282 282 282 282 282 282 282 282 282 281 280 280 279 279 279 277 277 277 277 276 277 276 276 276
282 282 282 281 281 281 281 281 282 282 282 281 281 281 281 280 279 279 280 280 280 280 281 281 281 281 281 280 279 279 279 278 277 278 278 277 277 277 276 275 274 274 275
280 279 279 279 279 279 278 279 280 281 281 281 280 279 279 279 279 279 277 277 278 278 278 278 279 278 278 278 277 277 276 277 276 276 276 275 275 275 274 274 273 273 272

GFSMW_925_thetae_078.txt.gz
Theta_e
319 319 322 329 332 334 336 334 332 332 330 329 327 327 328 328 327 327 327 327 327 328 328 327 326 324 325 324 324 326 325 324 324 322 322 322 322 322 321 320 319 319 319
319 319 323 329 332 334 335 333 332 331 330 329 327 327 327 327 327 327 326 327 326 326 327 326 324 324 322 322 323 325 325 324 323 323 322 323 322 321 322 321 320 319 319
319 320 323 329 331 333 334 333 332 331 330 330 329 329 327 326 326 326 326 325 328 326 326 326 324 324 323 321 323 324 324 324 323 323 322 324 324 322 322 321 320 319 319
319 320 322 328 330 332 334 333 332 331 330 329 328 328 327 326 326 326 325 325 325 326 325 325 325 324 324 322 322 324 324 323 323 323 322 321 320 324 325 322 321 320 319
320 322 322 325 329 331 333 333 332 330 330 328 327 327 327 326 326 326 325 325 324 323 322 324 324 324 323 324 323 323 323 323 322 323 323 323 323 322 322 323 322 322 320
322 322 322 325 328 331 333 332 331 329 329 328 327 327 326 325 327 325 326 324 324 323 323 324 324 323 322 322 322 321 321 322 322 322 322 322 322 322 322 322 322 322 321
325 323 326 328 329 332 330 329 330 328 328 327 326 326 326 326 326 326 325 324 324 323 323 324 323 322 320 320 320 320 320 320 321 322 322 322 322 321 321 320 319 320 320
327 323 327 328 329 331 326 327 329 327 327 327 326 327 326 325 325 325 326 326 324 324 324 324 323 321 319 319 318 319 319 319 320 321 322 322 322 322 321 321 320 319 319
330 324 326 330 329 330 324 326 326 325 325 325 325 326 326 325 325 325 324 323 323 323 323 323 322 323 321 318 316 315 316 317 318 319 319 321 320 321 321 321 320 319 322
328 326 327 329 329 327 324 326 325 324 324 323 324 324 324 324 323 323 322 323 323 322 322 321 322 322 322 321 320 318 314 314 314 316 318 318 317 320 321 320 320 320 320
317 327 327 327 326 324 324 324 325 324 323 322 322 323 322 323 322 322 321 321 322 321 321 322 321 321 321 320 319 320 319 315 316 316 316 316 317 318 318 318 318 318 318
312 312 322 324 323 324 323 324 325 325 324 321 322 322 323 323 323 322 321 321 321 321 321 321 321 320 321 321 321 320 320 318 316 316 318 318 318 317 318 317 318 318 317
306 307 308 309 308 314 319 320 322 322 321 321 321 321 320 320 321 322 322 323 322 320 320 321 320 320 320 320 321 321 322 321 320 320 318 318 318 317 317 318 318 318 318
303 302 302 303 304 305 305 308 310 316 320 319 317 317 319 320 320 320 321 321 321 322 321 320 320 320 321 321 322 323 323 322 321 322 321 322 321 321 321 321 321 320 320
300 299 299 299 299 300 301 301 301 303 304 305 305 305 309 312 315 318 319 321 321 321 322 322 321 321 318 315 319 321 321 321 321 321 321 321 321 321 322 322 322 322 321
298 297 297 297 297 297 298 298 297 297 298 298 299 300 301 303 304 307 309 311 313 314 316 317 318 314 306 306 314 317 318 318 319 319 320 320 320 320 320 320 319 319 320
297 296 295 295 295 294 294 296 296 295 296 296 296 298 299 299 299 300 301 302 302 303 302 301 300 299 298 300 304 308 312 313 314 312 313 315 317 318 319 319 319 318 318
296 295 294 294 293 292 293 292 292 293 293 294 294 294 295 297 299 299 300 299 296 294 293 292 292 292 290 293 299 303 305 303 302 300 299 301 303 304 306 311 313 314 312
293 293 293 292 291 291 291 291 291 291 290 290 291 292 293 294 295 296 295 296 294 292 290 289 289 290 287 288 294 298 301 296 290 287 288 290 291 293 298 301 303 304 297
290 290 291 291 290 290 290 290 290 288 288 289 289 289 290 291 292 292 292 292 291 290 289 289 288 287 287 284 290 291 290 288 286 284 284 283 284 287 293 294 294 288 284
289 289 289 289 289 289 289 289 288 287 287 287 287 287 288 289 289 290 290 290 290 289 289 288 286 285 283 283 283 285 287 285 284 283 282 281 282 282 282 285 285 281 282
289 289 289 288 288 288 288 288 287 285 286 286 286 286 286 287 288 288 288 288 288 288 288 287 286 285 283 281 281 281 282 284 284 283 282 280 280 280 280 281 280 282 282
289 288 287 286 286 286 287 286 285 285 286 285 285 285 285 285 286 286 287 287 287 287 287 287 286 285 285 284 282 281 280 280 281 280 279 279 280 281 280 279 281 282 283
286 287 287 286 285 285 285 285 285 285 285 285 284 284 284 284 284 284 284 285 285 285 285 285 285 284 283 282 283 283 283 282 282 281 281 280 281 280 279 280 280 280 279
284 284 285 284 284 284 284 284 285 285 284 284 284 284 283 282 281 280 281 281 280 282 283 282 282 282 281 279 279 279 280 280 280 281 281 281 281 280 280 279 278 277 278
282 283 282 282 282 282 282 282 283 284 285 284 284 283 283 283 282 280 278 277 277 278 278 278 280 278 277 277 277 276 277 277 280 281 280 279 279 278 277 277 276 275 275

GFSMW_925_thetae_081.txt.gz
Theta_e
320 319 321 323 329 333 337 339 338 337 335 333 332 331 331 331 330 329 329 329 329 329 330 329 327 326 326 326 326 326 325 325 324 323 322 322 322 322 320 320 319 320 320
321 320 321 323 331 334 337 339 337 336 334 332 331 330 331 331 330 330 328 328 327 328 328 328 327 326 325 326 326 325 325 325 323 323 323 324 323 323 321 321 320 320 320
321 320 320 324 331 333 337 338 337 335 333 332 331 330 328 330 329 330 330 328 329 329 328 327 326 325 325 324 324 325 325 324 324 323 323 324 324 322 323 322 321 320 320
321 321 320 324 330 332 335 337 336 335 333 332 330 330 330 328 329 329 329 328 329 329 328 325 325 325 324 322 322 325 325 324 325 324 323 321 320 324 325 323 322 322 321
321 320 320 322 328 332 335 336 336 335 333 332 331 330 328 329 329 328 328 327 326 325 324 326 324 324 323 323 322 324 324 324 324 324 324 323 323 323 324 325 324 323 321
322 322 320 320 326 331 335 336 335 334 333 333 331 329 328 328 329 328 328 326 325 324 324 325 324 324 323 323 322 324 324 324 324 324 324 323 323 323 322 324 324 324 323
326 324 322 323 325 331 335 335 335 333 333 332 331 329 328 329 327 328 327 325 324 323 322 323 323 323 324 324 323 323 323 324 324 324 323 323 323 322 322 323 322 322 322
331 328 325 325 328 331 334 335 335 332 333 332 330 328 328 328 329 328 327 326 325 324 323 323 323 322 323 324 324 324 324 324 324 323 323 323 322 322 323 322 321 322 321
326 330 326 329 329 333 334 333 333 330 331 331 330 327 327 327 327 327 327 327 326 325 323 324 323 322 323 323 322 323 322 322 323 322 322 323 322 321 322 321 319 322 323
318 325 328 330 330 333 330 329 330 328 329 330 328 327 327 326 327 327 326 325 324 324 325 323 323 323 322 322 321 320 321 320 320 320 321 321 321 320 321 320 318 321 321
311 316 321 330 331 328 326 328 327 327 327 327 327 325 325 326 326 326 325 324 325 324 323 323 322 321 320 321 318 317 317 316 317 318 317 317 319 319 319 317 315 320 320
306 307 311 313 325 325 325 326 327 325 325 325 325 324 324 324 324 324 324 323 323 323 322 322 322 322 321 321 320 319 317 315 315 315 315 316 316 317 317 316 318 319 318
303 303 304 306 308 310 316 318 325 326 324 324 324 323 323 324 324 323 323 322 322 321 321 321 323 323 322 321 321 320 319 319 318 318 316 316 317 317 318 318 317 317 317
301 301 300 301 302 303 304 305 308 315 319 319 319 319 320 322 323 323 324 323 322 321 320 320 321 321 321 321 321 321 321 321 321 321 320 319 318 317 318 318 318 318 319
299 298 298 298 298 299 299 300 301 303 305 306 307 307 310 315 317 319 320 320 319 318 320 321 318 315 315 314 317 319 321 323 323 323 322 322 322 322 320 320 319 320 321
298 296 296 296 296 296 297 297 297 298 299 300 300 301 303 305 307 308 308 312 313 313 313 310 307 305 303 303 311 316 316 316 317 317 319 319 319 320 320 320 320 320 317
297 296 296 294 293 293 294 295 296 298 297 297 298 300 301 300 301 302 302 300 299 301 300 299 298 296 297 301 305 308 310 308 307 307 308 308 307 309 311 314 314 312 311
296 294 293 292 292 292 292 293 292 292 294 296 296 298 299 300 300 299 297 295 294 293 292 292 292 293 293 297 301 302 301 300 296 295 294 295 296 298 300 304 302 300 299
293 291 292 292 291 291 291 290 291 291 291 291 292 295 296 297 297 296 295 294 293 291 290 289 290 288 288 293 298 297 294 290 288 287 287 287 287 291 295 297 297 291 287
290 291 291 290 290 290 290 289 289 289 289 290 291 292 292 294 293 293 293 293 293 292 291 289 288 287 286 287 289 290 289 287 285 284 283 282 283 283 288 288 287 283 283
290 289 290 291 290 291 289 289 289 289 288 288 289 290 290 291 292 292 292 292 292 291 289 288 287 285 285 283 286 288 288 287 286 285 283 282 282 283 282 282 282 281 282
291 290 290 290 291 291 290 290 289 287 287 288 287 287 288 289 290 291 290 290 291 290 289 288 287 286 284 282 282 283 284 285 284 283 282 282 281 281 282 282 283 284 284
291 291 290 290 289 290 290 289 289 288 288 288 288 287 287 286 287 288 289 289 290 289 288 288 287 285 285 284 283 283 282 281 282 281 281 281 281 281 281 281 281 282 282
289 289 289 288 287 288 288 288 288 288 287 286 286 286 286 286 285 284 283 284 286 287 286 286 286 284 283 282 283 283 283 283 283 282 282 282 282 281 281 281 280 280 280
287 287 287 286 286 286 287 287 287 287 287 286 286 285 283 282 280 279 281 281 280 281 283 282 282 282 280 279 279 280 281 282 282 282 282 282 282 282 281 280 279 278 279
284 284 284 283 283 283 283 284 286 287 287 286 286 286 286 284 282 280 278 277 278 278 278 279 279 278 277 278 278 278 279 280 282 282 282 281 280 280 279 279 278 277 277

GFSMW_925_thetae_084.txt.gz
Theta_e
321 320 320 318 321 326 339 343 341 339 339 335 332 332 330 330 330 330 330 331 331 331 331 330 329 328 328 327 328 328 327 326 325 324 323 323 321 319 320 322 321 320 320
320 321 321 321 326 334 338 343 340 339 338 335 332 333 331 331 329 329 328 329 330 330 330 329 328 327 326 327 327 326 326 326 325 323 323 322 322 321 321 320 320 321 321
320 321 322 322 329 334 339 342 340 339 337 334 333 331 331 330 329 329 329 329 328 328 329 329 328 327 326 326 326 325 325 326 325 323 322 323 323 322 321 321 320 321 320
318 321 322 322 332 333 339 340 340 338 337 334 332 331 330 330 329 329 329 329 330 329 329 327 327 327 326 326 326 325 325 325 324 323 322 321 322 321 322 322 320 321 320
319 321 322 322 332 333 339 340 339 337 336 334 332 331 330 329 329 330 329 329 328 329 329 328 326 326 326 325 325 325 325 324 324 323 323 321 323 321 322 322 323 322 322
320 320 322 321 329 332 338 339 338 336 335 334 332 331 330 329 328 329 328 327 326 325 326 326 326 324 325 325 325 323 323 324 324 324 323 324 324 324 323 323 322 322 322
328 330 329 322 323 333 338 339 338 336 335 334 334 331 331 329 328 328 328 325 325 323 322 323 325 324 324 324 324 323 324 323 323 323 324 324 323 323 323 323 323 323 323
322 324 325 323 327 335 338 338 337 336 335 335 333 331 329 327 328 329 328 326 325 325 322 323 324 323 324 324 323 320 323 322 323 323 324 323 323 323 322 322 321 320 321
317 319 320 323 328 334 338 337 337 335 335 334 332 330 328 327 329 328 327 326 325 324 323 323 323 324 324 323 323 322 323 322 321 323 323 323 323 323 322 323 322 321 321
312 313 313 317 334 336 336 335 335 333 334 333 332 329 328 326 327 327 328 328 326 325 324 323 323 322 323 324 324 323 323 323 323 323 323 322 322 322 321 321 320 319 320
307 307 308 309 315 330 330 329 330 330 331 331 330 328 326 326 327 327 326 325 325 325 325 323 322 322 323 323 323 323 323 323 322 322 322 322 321 320 321 318 315 318 316
304 303 303 304 306 310 319 327 327 328 328 328 327 326 325 327 327 326 325 325 324 324 323 323 323 322 322 322 322 322 321 321 321 320 320 320 319 316 317 319 318 318 316
302 301 301 301 302 303 305 308 318 326 326 325 325 324 323 324 325 325 324 324 323 321 321 323 322 321 321 321 320 320 320 319 318 317 317 317 317 315 315 315 316 318 317
300 299 298 298 298 299 300 301 304 314 320 320 320 320 321 322 321 324 323 323 322 320 320 322 321 320 320 320 320 320 319 319 318 317 317 317 316 316 315 315 316 317 316
299 298 297 296 295 296 297 299 299 302 307 310 311 310 314 315 317 317 316 319 320 319 319 317 316 314 315 316 318 319 319 321 320 319 320 318 316 315 316 317 318 318 318
298 297 295 294 294 293 295 296 298 298 300 302 303 305 307 310 308 306 309 311 309 308 309 307 305 304 303 305 311 314 314 315 316 311 308 310 316 315 310 309 310 312 314
297 296 294 293 292 292 292 293 293 296 298 299 301 302 302 300 300 300 299 299 299 299 298 298 298 298 299 303 305 310 310 307 304 303 304 303 304 306 307 298 300 301 301
295 294 294 292 291 291 291 291 291 292 293 295 297 299 299 298 296 296 294 293 293 293 291 291 292 295 297 299 301 303 302 299 295 294 293 294 295 298 300 297 296 292 291
293 291 290 291 291 290 290 290 290 291 291 291 293 295 296 296 295 294 293 292 291 290 289 288 288 289 292 293 293 296 294 291 287 287 286 287 288 290 296 295 290 287 284
290 290 290 290 289 289 289 289 289 289 290 290 291 292 293 293 294 294 293 292 290 289 287 285 285 285 287 289 289 290 289 286 284 284 284 284 284 284 287 289 287 283 282
290 290 290 290 290 289 288 288 289 289 288 289 289 290 291 291 291 291 292 291 289 288 287 285 284 283 284 286 288 288 286 284 283 282 282 282 283 284 284 284 284 284 284
290 290 290 290 290 290 289 289 288 287 287 288 288 288 289 290 290 291 291 290 289 288 287 286 286 284 283 283 283 284 284 283 282 282 282 282 282 282 283 283 284 284 283
291 290 290 289 290 290 290 289 288 288 288 287 287 286 286 286 286 286 287 288 288 288 287 286 284 283 283 284 283 283 282 282 282 282 282 282 282 281 281 281 281 282 282
289 289 288 288 288 289 289 289 288 287 286 285 284 283 282 282 283 282 282 283 285 285 285 285 283 281 281 283 283 283 283 283 283 283 283 282 282 281 279 279 279 280 280
286 286 286 285 285 284 284 287 288 288 287 286 284 283 281 280 279 279 280 279 280 282 281 280 280 279 279 280 280 281 282 282 283 282 282 281 281 280 280 278 277 277 278
284 283 283 283 282 283 283 283 285 287 286 286 286 286 283 282 280 278 277 278 278 278 278 278 278 278 278 279 279 280 281 282 281 281 280 280 279 278 278 277 277 276 276